Time,TemperatureF,DewpointF,PressureIn,WindDirection,WindDirectionDegrees,WindSpeedMPH,WindSpeedGustMPH,Humidity,HourlyPrecipIn,Conditions,Clouds,dailyrainin,SoftwareType,DateUTC
2013-07-22 00:00:00,63.7,52.5,29.81,ESE,112,0.0,0.0,67,0.00,CLR,,0.00,WeatherDisplay:10.37,2013-07-22 04:00:00,
2013-07-22 00:01:00,63.7,52.5,29.81,ESE,112,0.0,0.0,67,0.00,CLR,,0.00,WeatherDisplay:10.37,2013-07-22 04:01:00,
2013-07-22 00:06:00,63.7,52.5,29.81,ESE,112,0.0,0.0,67,0.00,CLR,,0.00,WeatherDisplay:10.37,2013-07-22 04:06:00,
2013-07-22 00:07:00,63.7,52.5,29.81,ESE,112,0.0,0.0,67,0.00,CLR,,0.00,WeatherDisplay:10.37,2013-07-22 04:07:00,
2013-07-22 00:11:00,63.5,52.3,29.81,ESE,112,0.0,0.0,67,0.00,CLR,,0.00,WeatherDisplay:10.37,2013-07-22 04:11:00,
2013-07-22 00:12:00,63.5,52.3,29.81,ESE,112,0.0,0.0,67,0.00,CLR,,0.00,WeatherDisplay:10.37,2013-07-22 04:12:00,
2013-07-22 00:16:00,63.5,52.3,29.81,ESE,112,0.0,0.0,67,0.00,CLR,,0.00,WeatherDisplay:10.37,2013-07-22 04:16:00,
2013-07-22 00:17:00,63.3,52.2,29.81,ESE,112,0.0,0.0,67,0.00,CLR,,0.00,WeatherDisplay:10.37,2013-07-22 04:17:00,
2013-07-22 00:22:00,63.1,52.4,29.81,ESE,112,0.0,0.0,68,0.00,CLR,,0.00,WeatherDisplay:10.37,2013-07-22 04:22:00,
2013-07-22 00:27:00,63.1,52.4,29.81,ESE,112,0.0,0.0,68,0.00,CLR,,0.00,WeatherDisplay:10.37,2013-07-22 04:27:00,
2013-07-22 00:32:00,63.0,52.6,29.81,ESE,112,0.0,0.0,69,0.00,CLR,,0.00,WeatherDisplay:10.37,2013-07-22 04:32:00,
2013-07-22 00:37:00,62.8,52.5,29.81,ESE,112,0.0,0.0,69,0.00,CLR,,0.00,WeatherDisplay:10.37,2013-07-22 04:37:00,
2013-07-22 00:38:00,62.8,52.5,29.81,ESE,112,0.0,0.0,69,0.00,CLR,,0.00,WeatherDisplay:10.37,2013-07-22 04:38:00,
2013-07-22 00:42:00,62.8,52.8,29.81,ESE,112,0.0,0.0,70,0.00,CLR,,0.00,WeatherDisplay:10.37,2013-07-22 04:42:00,
2013-07-22 00:43:00,62.8,52.8,29.81,ESE,112,0.0,0.0,70,0.00,CLR,,0.00,WeatherDisplay:10.37,2013-07-22 04:43:00,
2013-07-22 00:47:00,63.0,53.0,29.81,ESE,112,0.0,0.0,70,0.00,CLR,,0.00,WeatherDisplay:10.37,2013-07-22 04:47:00,
2013-07-22 00:48:00,63.0,53.0,29.81,ESE,112,0.0,0.0,70,0.00,CLR,,0.00,WeatherDisplay:10.37,2013-07-22 04:48:00,
2013-07-22 00:52:00,63.0,53.0,29.81,ESE,112,0.0,0.0,70,0.00,CLR,,0.00,WeatherDisplay:10.37,2013-07-22 04:52:00,
2013-07-22 00:53:00,63.0,53.0,29.81,ESE,112,0.0,0.0,70,0.00,CLR,,0.00,WeatherDisplay:10.37,2013-07-22 04:53:00,
2013-07-22 00:58:00,62.6,53.1,29.81,ESE,112,0.0,0.0,71,0.00,CLR,,0.00,WeatherDisplay:10.37,2013-07-22 04:58:00,
2013-07-22 00:59:00,62.6,53.1,29.81,ESE,112,0.0,0.0,71,0.00,CLR,,0.00,WeatherDisplay:10.37,2013-07-22 04:59:00,
2013-07-22 01:03:00,62.6,53.1,29.81,ESE,112,0.0,0.0,71,0.00,CLR,,0.00,WeatherDisplay:10.37,2013-07-22 05:03:00,
2013-07-22 01:04:00,62.6,53.1,29.81,ESE,112,0.0,0.0,71,0.00,CLR,,0.00,WeatherDisplay:10.37,2013-07-22 05:04:00,
2013-07-22 01:08:00,62.4,53.3,29.81,ESE,112,0.0,0.0,72,0.00,CLR,,0.00,WeatherDisplay:10.37,2013-07-22 05:08:00,
2013-07-22 01:09:00,62.4,53.3,29.81,ESE,112,0.0,0.0,72,0.00,CLR,,0.00,WeatherDisplay:10.37,2013-07-22 05:09:00,
2013-07-22 01:13:00,62.2,53.1,29.81,ESE,112,0.0,0.0,72,0.00,CLR,,0.00,WeatherDisplay:10.37,2013-07-22 05:13:00,
2013-07-22 01:14:00,62.2,53.1,29.81,ESE,112,0.0,0.0,72,0.00,CLR,,0.00,WeatherDisplay:10.37,2013-07-22 05:14:00,
2013-07-22 01:15:00,62.1,52.9,29.81,ESE,112,0.0,0.0,72,0.00,CLR,,0.00,WeatherDisplay:10.37,2013-07-22 05:15:00,
2013-07-22 01:18:00,62.1,53.3,29.81,ESE,112,0.0,0.0,73,0.00,CLR,,0.00,WeatherDisplay:10.37,2013-07-22 05:18:00,
2013-07-22 01:19:00,62.1,53.3,29.81,ESE,112,0.0,0.0,73,0.00,CLR,,0.00,WeatherDisplay:10.37,2013-07-22 05:19:00,
2013-07-22 01:20:00,62.2,53.8,29.81,ESE,112,0.0,0.0,74,0.00,CLR,,0.00,WeatherDisplay:10.37,2013-07-22 05:20:00,
2013-07-22 01:23:00,62.1,53.3,29.81,ESE,112,0.0,0.0,73,0.00,CLR,,0.00,WeatherDisplay:10.37,2013-07-22 05:23:00,
2013-07-22 01:24:00,62.1,53.3,29.81,ESE,112,0.0,0.0,73,0.00,CLR,,0.00,WeatherDisplay:10.37,2013-07-22 05:24:00,
2013-07-22 01:25:00,62.1,53.7,29.81,ESE,112,0.0,0.0,74,0.00,CLR,,0.00,WeatherDisplay:10.37,2013-07-22 05:25:00,
2013-07-22 01:29:00,62.1,53.7,29.81,ESE,112,0.0,0.0,74,0.00,CLR,,0.00,WeatherDisplay:10.37,2013-07-22 05:29:00,
2013-07-22 01:31:00,62.1,53.7,29.81,ESE,112,0.0,0.0,74,0.00,CLR,,0.00,WeatherDisplay:10.37,2013-07-22 05:31:00,
2013-07-22 01:34:00,62.1,54.0,29.81,ESE,112,0.0,0.0,75,0.00,CLR,,0.00,WeatherDisplay:10.37,2013-07-22 05:34:00,
2013-07-22 01:36:00,62.1,54.0,29.84,ESE,112,0.0,0.0,75,0.00,CLR,,0.00,WeatherDisplay:10.37,2013-07-22 05:36:00,
2013-07-22 01:39:00,62.1,54.4,29.84,ESE,112,0.0,0.0,76,0.00,CLR,,0.00,WeatherDisplay:10.37,2013-07-22 05:39:00,
2013-07-22 01:40:00,62.1,54.4,29.84,ESE,112,0.0,0.0,76,0.00,CLR,,0.00,WeatherDisplay:10.37,2013-07-22 05:40:00,
2013-07-22 01:41:00,61.9,54.2,29.84,ESE,112,0.0,0.0,76,0.00,CLR,,0.00,WeatherDisplay:10.37,2013-07-22 05:41:00,
2013-07-22 01:44:00,61.9,54.2,29.84,ESE,112,0.0,0.0,76,0.00,CLR,,0.00,WeatherDisplay:10.37,2013-07-22 05:44:00,
2013-07-22 01:45:00,61.9,54.2,29.84,ESE,112,0.0,0.0,76,0.00,CLR,,0.00,WeatherDisplay:10.37,2013-07-22 05:45:00,
2013-07-22 01:46:00,61.9,54.2,29.84,ESE,112,0.0,0.0,76,0.00,CLR,,0.00,WeatherDisplay:10.37,2013-07-22 05:46:00,
2013-07-22 01:49:00,61.9,54.2,29.84,ESE,112,0.0,0.0,76,0.00,CLR,,0.00,WeatherDisplay:10.37,2013-07-22 05:49:00,
2013-07-22 01:50:00,61.7,54.1,29.84,ESE,112,0.0,0.0,76,0.00,CLR,,0.00,WeatherDisplay:10.37,2013-07-22 05:50:00,
2013-07-22 01:51:00,61.7,54.1,29.81,ESE,112,0.0,0.0,76,0.00,CLR,,0.00,WeatherDisplay:10.37,2013-07-22 05:51:00,
2013-07-22 01:54:00,61.7,54.4,29.81,ESE,112,0.0,0.0,77,0.00,CLR,,0.00,WeatherDisplay:10.37,2013-07-22 05:54:00,
2013-07-22 01:55:00,61.7,54.4,29.81,ESE,112,0.0,0.0,77,0.00,CLR,,0.00,WeatherDisplay:10.37,2013-07-22 05:55:00,
2013-07-22 01:56:00,61.7,54.4,29.81,ESE,112,0.0,0.0,77,0.00,CLR,,0.00,WeatherDisplay:10.37,2013-07-22 05:56:00,
2013-07-22 01:57:00,61.7,54.4,29.81,ESE,112,0.0,0.0,77,0.00,CLR,,0.00,WeatherDisplay:10.37,2013-07-22 05:57:00,
2013-07-22 02:00:00,61.7,54.4,29.81,ESE,112,0.0,0.0,77,0.00,CLR,,0.00,WeatherDisplay:10.37,2013-07-22 06:00:00,
2013-07-22 02:01:00,61.7,54.8,29.81,ESE,112,0.0,0.0,78,0.00,CLR,,0.00,WeatherDisplay:10.37,2013-07-22 06:01:00,
2013-07-22 02:02:00,61.7,54.8,29.81,ESE,112,0.0,0.0,78,0.00,CLR,,0.00,WeatherDisplay:10.37,2013-07-22 06:02:00,
2013-07-22 02:05:00,61.7,54.8,29.81,ESE,112,0.0,0.0,78,0.00,CLR,,0.00,WeatherDisplay:10.37,2013-07-22 06:05:00,
2013-07-22 02:06:00,61.7,54.8,29.81,ESE,112,0.0,0.0,78,0.00,CLR,,0.00,WeatherDisplay:10.37,2013-07-22 06:06:00,
2013-07-22 02:07:00,61.7,54.8,29.81,ESE,112,0.0,0.0,78,0.00,CLR,,0.00,WeatherDisplay:10.37,2013-07-22 06:07:00,
2013-07-22 02:10:00,61.5,54.6,29.81,ESE,112,0.0,0.0,78,0.00,CLR,,0.00,WeatherDisplay:10.37,2013-07-22 06:10:00,
2013-07-22 02:11:00,61.5,54.6,29.81,ESE,112,0.0,0.0,78,0.00,CLR,,0.00,WeatherDisplay:10.37,2013-07-22 06:11:00,
2013-07-22 02:12:00,61.7,54.8,29.81,ESE,112,0.0,0.0,78,0.00,CLR,,0.00,WeatherDisplay:10.37,2013-07-22 06:12:00,
2013-07-22 02:15:00,61.5,54.6,29.81,ESE,112,0.0,0.0,78,0.00,CLR,,0.00,WeatherDisplay:10.37,2013-07-22 06:15:00,
2013-07-22 02:16:00,61.5,54.6,29.81,ESE,112,0.0,0.0,78,0.00,CLR,,0.00,WeatherDisplay:10.37,2013-07-22 06:16:00,
2013-07-22 02:17:00,61.5,54.6,29.81,ESE,112,0.0,0.0,78,0.00,CLR,,0.00,WeatherDisplay:10.37,2013-07-22 06:17:00,
2013-07-22 02:18:00,61.7,54.8,29.81,ESE,112,0.0,0.0,78,0.00,CLR,,0.00,WeatherDisplay:10.37,2013-07-22 06:18:00,
2013-07-22 02:20:00,61.7,54.8,29.81,ESE,112,0.0,0.0,78,0.00,CLR,,0.00,WeatherDisplay:10.37,2013-07-22 06:20:00,
2013-07-22 02:21:00,61.7,54.8,29.81,ESE,112,0.0,0.0,78,0.00,CLR,,0.00,WeatherDisplay:10.37,2013-07-22 06:21:00,
2013-07-22 02:22:00,61.7,54.8,29.81,ESE,112,0.0,0.0,78,0.00,CLR,,0.00,WeatherDisplay:10.37,2013-07-22 06:22:00,
2013-07-22 02:23:00,61.5,54.6,29.81,ESE,112,0.0,0.0,78,0.00,CLR,,0.00,WeatherDisplay:10.37,2013-07-22 06:23:00,
2013-07-22 02:26:00,61.5,54.6,29.81,ESE,112,0.0,0.0,78,0.00,CLR,,0.00,WeatherDisplay:10.37,2013-07-22 06:26:00,
2013-07-22 02:27:00,61.5,54.6,29.81,ESE,112,0.0,0.0,78,0.00,CLR,,0.00,WeatherDisplay:10.37,2013-07-22 06:27:00,
2013-07-22 02:28:00,61.5,54.6,29.81,ESE,112,0.0,0.0,78,0.00,CLR,,0.00,WeatherDisplay:10.37,2013-07-22 06:28:00,
2013-07-22 02:31:00,61.3,54.8,29.81,ESE,112,0.0,0.0,79,0.00,CLR,,0.00,WeatherDisplay:10.37,2013-07-22 06:31:00,
2013-07-22 02:32:00,61.3,54.8,29.81,ESE,112,0.0,0.0,79,0.00,CLR,,0.00,WeatherDisplay:10.37,2013-07-22 06:32:00,
2013-07-22 02:33:00,61.3,54.8,29.81,ESE,112,0.0,0.0,79,0.00,CLR,,0.00,WeatherDisplay:10.37,2013-07-22 06:33:00,
2013-07-22 02:36:00,61.2,54.6,29.81,ESE,112,0.0,0.0,79,0.00,CLR,,0.00,WeatherDisplay:10.37,2013-07-22 06:36:00,
2013-07-22 02:37:00,61.2,54.6,29.81,ESE,112,0.0,0.0,79,0.00,CLR,,0.00,WeatherDisplay:10.37,2013-07-22 06:37:00,
2013-07-22 02:38:00,61.2,54.6,29.81,ESE,112,0.0,0.0,79,0.00,CLR,,0.00,WeatherDisplay:10.37,2013-07-22 06:38:00,
2013-07-22 02:41:00,61.2,54.6,29.81,ESE,112,0.0,0.0,79,0.00,CLR,,0.00,WeatherDisplay:10.37,2013-07-22 06:41:00,
2013-07-22 02:42:00,61.2,54.6,29.81,ESE,112,0.0,0.0,79,0.00,CLR,,0.00,WeatherDisplay:10.37,2013-07-22 06:42:00,
2013-07-22 02:43:00,61.2,54.6,29.81,ESE,112,0.0,0.0,79,0.00,CLR,,0.00,WeatherDisplay:10.37,2013-07-22 06:43:00,
2013-07-22 02:46:00,61.3,55.1,29.81,ESE,112,0.0,0.0,80,0.00,CLR,,0.00,WeatherDisplay:10.37,2013-07-22 06:46:00,
2013-07-22 02:47:00,61.3,55.1,29.81,ESE,112,0.0,0.0,80,0.00,CLR,,0.00,WeatherDisplay:10.37,2013-07-22 06:47:00,
2013-07-22 02:48:00,61.3,55.1,29.81,ESE,112,0.0,0.0,80,0.00,CLR,,0.00,WeatherDisplay:10.37,2013-07-22 06:48:00,
2013-07-22 02:51:00,61.3,55.1,29.81,ESE,112,0.0,0.0,80,0.00,CLR,,0.00,WeatherDisplay:10.37,2013-07-22 06:51:00,
2013-07-22 02:52:00,61.3,55.1,29.81,ESE,112,0.0,0.0,80,0.00,CLR,,0.00,WeatherDisplay:10.37,2013-07-22 06:52:00,
2013-07-22 02:53:00,61.2,54.9,29.81,ESE,112,0.0,0.0,80,0.00,CLR,,0.00,WeatherDisplay:10.37,2013-07-22 06:53:00,
2013-07-22 02:54:00,61.2,54.9,29.81,ESE,112,0.0,0.0,80,0.00,CLR,,0.00,WeatherDisplay:10.37,2013-07-22 06:54:00,
2013-07-22 02:56:00,61.2,54.9,29.81,ESE,112,0.0,0.0,80,0.00,CLR,,0.00,WeatherDisplay:10.37,2013-07-22 06:56:00,
2013-07-22 02:57:00,61.2,54.9,29.81,ESE,112,0.0,0.0,80,0.00,CLR,,0.00,WeatherDisplay:10.37,2013-07-22 06:57:00,
2013-07-22 02:58:00,61.2,54.9,29.81,ESE,112,0.0,0.0,80,0.00,CLR,,0.00,WeatherDisplay:10.37,2013-07-22 06:58:00,
2013-07-22 02:59:00,61.2,54.9,29.81,ESE,112,0.0,0.0,80,0.00,CLR,,0.00,WeatherDisplay:10.37,2013-07-22 06:59:00,
2013-07-22 03:02:00,61.0,54.8,29.81,ESE,112,0.0,0.0,80,0.00,CLR,,0.00,WeatherDisplay:10.37,2013-07-22 07:02:00,
2013-07-22 03:03:00,61.0,54.8,29.81,ESE,112,0.0,0.0,80,0.00,CLR,,0.00,WeatherDisplay:10.37,2013-07-22 07:03:00,
2013-07-22 03:04:00,61.0,54.8,29.81,ESE,112,0.0,0.0,80,0.00,CLR,,0.00,WeatherDisplay:10.37,2013-07-22 07:04:00,
2013-07-22 03:08:00,61.2,54.9,29.81,ESE,112,0.0,0.0,80,0.00,CLR,,0.00,WeatherDisplay:10.37,2013-07-22 07:08:00,
2013-07-22 03:09:00,61.0,54.8,29.81,ESE,112,0.0,0.0,80,0.00,CLR,,0.00,WeatherDisplay:10.37,2013-07-22 07:09:00,
2013-07-22 03:13:00,61.0,54.8,29.81,ESE,112,0.0,0.0,80,0.00,CLR,,0.00,WeatherDisplay:10.37,2013-07-22 07:13:00,
2013-07-22 03:14:00,61.0,55.1,29.81,ESE,112,0.0,0.0,81,0.00,CLR,,0.00,WeatherDisplay:10.37,2013-07-22 07:14:00,
2013-07-22 03:15:00,61.0,55.1,29.81,ESE,112,0.0,0.0,81,0.00,CLR,,0.00,WeatherDisplay:10.37,2013-07-22 07:15:00,
2013-07-22 03:18:00,61.2,55.3,29.81,ESE,112,0.0,0.0,81,0.00,CLR,,0.00,WeatherDisplay:10.37,2013-07-22 07:18:00,
2013-07-22 03:19:00,61.2,55.3,29.81,ESE,112,0.0,0.0,81,0.00,CLR,,0.00,WeatherDisplay:10.37,2013-07-22 07:19:00,
2013-07-22 03:21:00,61.2,55.3,29.78,ESE,112,0.0,0.0,81,0.00,CLR,,0.00,WeatherDisplay:10.37,2013-07-22 07:21:00,
2013-07-22 03:23:00,61.2,55.3,29.78,ESE,112,0.0,0.0,81,0.00,CLR,,0.00,WeatherDisplay:10.37,2013-07-22 07:23:00,
2013-07-22 03:24:00,61.0,55.1,29.78,ESE,112,0.0,0.0,81,0.00,CLR,,0.00,WeatherDisplay:10.37,2013-07-22 07:24:00,
2013-07-22 03:25:00,61.0,55.1,29.78,ESE,112,0.0,0.0,81,0.00,CLR,,0.00,WeatherDisplay:10.37,2013-07-22 07:25:00,
2013-07-22 03:26:00,61.0,55.1,29.78,ESE,112,0.0,0.0,81,0.00,CLR,,0.00,WeatherDisplay:10.37,2013-07-22 07:26:00,
2013-07-22 03:28:00,61.0,55.1,29.78,ESE,112,0.0,0.0,81,0.00,CLR,,0.00,WeatherDisplay:10.37,2013-07-22 07:28:00,
2013-07-22 03:30:00,61.0,55.1,29.78,ESE,112,0.0,0.0,81,0.00,CLR,,0.00,WeatherDisplay:10.37,2013-07-22 07:30:00,
2013-07-22 03:31:00,61.0,55.1,29.78,ESE,112,0.0,0.0,81,0.00,CLR,,0.00,WeatherDisplay:10.37,2013-07-22 07:31:00,
2013-07-22 03:33:00,61.0,55.1,29.78,ESE,112,0.0,0.0,81,0.00,CLR,,0.00,WeatherDisplay:10.37,2013-07-22 07:33:00,
2013-07-22 03:34:00,61.0,55.1,29.78,ESE,112,0.0,0.0,81,0.00,CLR,,0.00,WeatherDisplay:10.37,2013-07-22 07:34:00,
2013-07-22 03:35:00,61.2,55.3,29.78,ESE,112,0.0,0.0,81,0.00,CLR,,0.00,WeatherDisplay:10.37,2013-07-22 07:35:00,
2013-07-22 03:36:00,61.2,55.3,29.78,ESE,112,0.0,0.0,81,0.00,CLR,,0.00,WeatherDisplay:10.37,2013-07-22 07:36:00,
2013-07-22 03:39:00,61.2,55.3,29.78,ESE,112,0.0,0.0,81,0.00,CLR,,0.00,WeatherDisplay:10.37,2013-07-22 07:39:00,
2013-07-22 03:40:00,61.2,55.3,29.78,ESE,112,0.0,0.0,81,0.00,CLR,,0.00,WeatherDisplay:10.37,2013-07-22 07:40:00,
2013-07-22 03:41:00,61.2,55.3,29.78,ESE,112,0.0,0.0,81,0.00,CLR,,0.00,WeatherDisplay:10.37,2013-07-22 07:41:00,
2013-07-22 03:44:00,61.2,55.3,29.78,ESE,112,0.0,0.0,81,0.00,CLR,,0.00,WeatherDisplay:10.37,2013-07-22 07:44:00,
2013-07-22 03:45:00,61.0,55.1,29.78,ESE,112,0.0,0.0,81,0.00,CLR,,0.00,WeatherDisplay:10.37,2013-07-22 07:45:00,
2013-07-22 03:46:00,61.0,55.1,29.78,ESE,112,0.0,0.0,81,0.00,CLR,,0.00,WeatherDisplay:10.37,2013-07-22 07:46:00,
2013-07-22 03:49:00,60.8,54.9,29.78,ESE,112,0.0,0.0,81,0.00,CLR,,0.00,WeatherDisplay:10.37,2013-07-22 07:49:00,
2013-07-22 03:50:00,60.8,54.9,29.78,ESE,112,0.0,0.0,81,0.00,CLR,,0.00,WeatherDisplay:10.37,2013-07-22 07:50:00,
2013-07-22 03:51:00,60.8,54.9,29.78,ESE,112,0.0,0.0,81,0.00,CLR,,0.00,WeatherDisplay:10.37,2013-07-22 07:51:00,
2013-07-22 03:54:00,60.8,54.9,29.78,ESE,112,0.0,0.0,81,0.00,CLR,,0.00,WeatherDisplay:10.37,2013-07-22 07:54:00,
2013-07-22 03:55:00,60.6,55.1,29.78,ESE,112,0.0,0.0,82,0.00,CLR,,0.00,WeatherDisplay:10.37,2013-07-22 07:55:00,
2013-07-22 03:56:00,60.6,55.1,29.78,ESE,112,0.0,0.0,82,0.00,CLR,,0.00,WeatherDisplay:10.37,2013-07-22 07:56:00,
2013-07-22 03:57:00,60.6,55.1,29.78,ESE,112,0.0,0.0,82,0.00,CLR,,0.00,WeatherDisplay:10.37,2013-07-22 07:57:00,
2013-07-22 03:59:00,60.6,55.1,29.78,ESE,112,0.0,0.0,82,0.00,CLR,,0.00,WeatherDisplay:10.37,2013-07-22 07:59:00,
2013-07-22 04:01:00,60.6,55.1,29.78,ESE,112,0.0,0.0,82,0.00,CLR,,0.00,WeatherDisplay:10.37,2013-07-22 08:01:00,
2013-07-22 04:02:00,60.6,55.1,29.78,ESE,112,0.0,0.0,82,0.00,CLR,,0.00,WeatherDisplay:10.37,2013-07-22 08:02:00,
2013-07-22 04:04:00,60.6,55.1,29.78,ESE,112,0.0,0.0,82,0.00,CLR,,0.00,WeatherDisplay:10.37,2013-07-22 08:04:00,
2013-07-22 04:06:00,60.8,55.6,29.78,ESE,112,0.0,0.0,83,0.00,CLR,,0.00,WeatherDisplay:10.37,2013-07-22 08:06:00,
2013-07-22 04:07:00,60.8,55.6,29.78,ESE,112,0.0,0.0,83,0.00,CLR,,0.00,WeatherDisplay:10.37,2013-07-22 08:07:00,
2013-07-22 04:09:00,60.8,55.3,29.78,ESE,112,0.0,0.0,82,0.00,CLR,,0.00,WeatherDisplay:10.37,2013-07-22 08:09:00,
2013-07-22 04:10:00,60.8,55.3,29.78,ESE,112,0.0,0.0,82,0.00,CLR,,0.00,WeatherDisplay:10.37,2013-07-22 08:10:00,
2013-07-22 04:11:00,60.8,55.3,29.78,ESE,112,0.0,0.0,82,0.00,CLR,,0.00,WeatherDisplay:10.37,2013-07-22 08:11:00,
2013-07-22 04:12:00,60.8,55.3,29.78,ESE,112,0.0,0.0,82,0.00,CLR,,0.00,WeatherDisplay:10.37,2013-07-22 08:12:00,
2013-07-22 04:15:00,60.8,55.3,29.78,ESE,112,0.0,0.0,82,0.00,CLR,,0.00,WeatherDisplay:10.37,2013-07-22 08:15:00,
2013-07-22 04:16:00,60.6,55.1,29.78,ESE,112,0.0,0.0,82,0.00,CLR,,0.00,WeatherDisplay:10.37,2013-07-22 08:16:00,
2013-07-22 04:17:00,60.6,55.1,29.78,ESE,112,0.0,0.0,82,0.00,CLR,,0.00,WeatherDisplay:10.37,2013-07-22 08:17:00,
2013-07-22 04:20:00,60.6,55.1,29.78,ESE,112,0.0,0.0,82,0.00,CLR,,0.00,WeatherDisplay:10.37,2013-07-22 08:20:00,
2013-07-22 04:21:00,60.8,55.3,29.78,ESE,112,0.0,0.0,82,0.00,CLR,,0.00,WeatherDisplay:10.37,2013-07-22 08:21:00,
2013-07-22 04:22:00,60.8,55.3,29.78,ESE,112,0.0,0.0,82,0.00,CLR,,0.00,WeatherDisplay:10.37,2013-07-22 08:22:00,
2013-07-22 04:25:00,60.8,55.3,29.78,ESE,112,0.0,0.0,82,0.00,CLR,,0.00,WeatherDisplay:10.37,2013-07-22 08:25:00,
2013-07-22 04:26:00,60.6,55.4,29.78,ESE,112,0.0,0.0,83,0.00,CLR,,0.00,WeatherDisplay:10.37,2013-07-22 08:26:00,
2013-07-22 04:27:00,60.6,55.4,29.78,ESE,112,0.0,0.0,83,0.00,CLR,,0.00,WeatherDisplay:10.37,2013-07-22 08:27:00,
2013-07-22 04:28:00,60.6,55.4,29.78,ESE,112,0.0,0.0,83,0.00,CLR,,0.00,WeatherDisplay:10.37,2013-07-22 08:28:00,
2013-07-22 04:30:00,60.6,55.1,29.78,ESE,112,0.0,0.0,82,0.00,CLR,,0.00,WeatherDisplay:10.37,2013-07-22 08:30:00,
2013-07-22 04:31:00,60.6,55.1,29.78,ESE,112,0.0,0.0,82,0.00,CLR,,0.00,WeatherDisplay:10.37,2013-07-22 08:31:00,
2013-07-22 04:32:00,60.6,55.1,29.78,ESE,112,0.0,0.0,82,0.00,CLR,,0.00,WeatherDisplay:10.37,2013-07-22 08:32:00,
2013-07-22 04:33:00,60.6,55.1,29.78,ESE,112,0.0,0.0,82,0.00,CLR,,0.00,WeatherDisplay:10.37,2013-07-22 08:33:00,
2013-07-22 04:35:00,60.6,55.4,29.78,ESE,112,0.0,0.0,83,0.00,CLR,,0.00,WeatherDisplay:10.37,2013-07-22 08:35:00,
2013-07-22 04:36:00,60.6,55.4,29.78,ESE,112,0.0,0.0,83,0.00,CLR,,0.00,WeatherDisplay:10.37,2013-07-22 08:36:00,
2013-07-22 04:37:00,60.8,55.3,29.78,ESE,112,0.0,0.0,82,0.00,CLR,,0.00,WeatherDisplay:10.37,2013-07-22 08:37:00,
2013-07-22 04:38:00,60.6,55.4,29.78,ESE,112,0.0,0.0,83,0.00,CLR,,0.00,WeatherDisplay:10.37,2013-07-22 08:38:00,
2013-07-22 04:41:00,60.8,55.3,29.78,ESE,112,0.0,0.0,82,0.00,CLR,,0.00,WeatherDisplay:10.37,2013-07-22 08:41:00,
2013-07-22 04:42:00,60.8,55.3,29.78,ESE,112,0.0,0.0,82,0.00,CLR,,0.00,WeatherDisplay:10.37,2013-07-22 08:42:00,
2013-07-22 04:43:00,61.0,55.4,29.78,ESE,112,0.0,0.0,82,0.00,CLR,,0.00,WeatherDisplay:10.37,2013-07-22 08:43:00,
2013-07-22 04:46:00,61.0,55.4,29.78,ESE,112,0.0,0.0,82,0.00,CLR,,0.00,WeatherDisplay:10.37,2013-07-22 08:46:00,
2013-07-22 04:47:00,61.0,55.4,29.78,ESE,112,0.0,0.0,82,0.00,CLR,,0.00,WeatherDisplay:10.37,2013-07-22 08:47:00,
2013-07-22 04:48:00,61.0,55.1,29.78,ESE,112,0.0,0.0,81,0.00,CLR,,0.00,WeatherDisplay:10.37,2013-07-22 08:48:00,
2013-07-22 04:51:00,61.0,55.1,29.78,ESE,112,0.0,0.0,81,0.00,CLR,,0.00,WeatherDisplay:10.37,2013-07-22 08:51:00,
2013-07-22 04:52:00,61.0,55.1,29.78,ESE,112,0.0,0.0,81,0.00,CLR,,0.00,WeatherDisplay:10.37,2013-07-22 08:52:00,
2013-07-22 04:53:00,61.0,55.1,29.78,ESE,112,0.0,0.0,81,0.00,CLR,,0.00,WeatherDisplay:10.37,2013-07-22 08:53:00,
2013-07-22 04:56:00,61.0,55.1,29.78,ESE,112,0.0,0.0,81,0.00,CLR,,0.00,WeatherDisplay:10.37,2013-07-22 08:56:00,
2013-07-22 04:57:00,61.0,55.1,29.78,ESE,112,0.0,0.0,81,0.00,CLR,,0.00,WeatherDisplay:10.37,2013-07-22 08:57:00,
2013-07-22 05:00:00,61.2,55.3,29.78,ESE,112,0.0,0.0,81,0.00,CLR,,0.00,WeatherDisplay:10.37,2013-07-22 09:00:00,
2013-07-22 05:01:00,61.3,55.5,29.78,ESE,112,0.0,0.0,81,0.00,CLR,,0.00,WeatherDisplay:10.37,2013-07-22 09:01:00,
2013-07-22 05:02:00,61.3,55.5,29.78,ESE,112,0.0,0.0,81,0.00,CLR,,0.00,WeatherDisplay:10.37,2013-07-22 09:02:00,
2013-07-22 05:03:00,61.3,55.5,29.78,ESE,112,0.0,0.0,81,0.00,CLR,,0.00,WeatherDisplay:10.37,2013-07-22 09:03:00,
2013-07-22 05:05:00,61.3,55.5,29.78,ESE,112,0.0,0.0,81,0.00,CLR,,0.00,WeatherDisplay:10.37,2013-07-22 09:05:00,
2013-07-22 05:06:00,61.3,55.5,29.78,ESE,112,0.0,0.0,81,0.00,CLR,,0.00,WeatherDisplay:10.37,2013-07-22 09:06:00,
2013-07-22 05:07:00,61.3,55.5,29.78,ESE,112,0.0,0.0,81,0.00,CLR,,0.00,WeatherDisplay:10.37,2013-07-22 09:07:00,
2013-07-22 05:08:00,61.3,55.5,29.78,ESE,112,0.0,0.0,81,0.00,CLR,,0.00,WeatherDisplay:10.37,2013-07-22 09:08:00,
2013-07-22 05:10:00,61.2,54.9,29.78,ESE,112,0.0,0.0,80,0.00,CLR,,0.00,WeatherDisplay:10.37,2013-07-22 09:10:00,
2013-07-22 05:11:00,61.2,54.9,29.78,ESE,112,0.0,0.0,80,0.00,CLR,,0.00,WeatherDisplay:10.37,2013-07-22 09:11:00,
2013-07-22 05:12:00,61.2,54.9,29.78,ESE,112,0.0,0.0,80,0.00,CLR,,0.00,WeatherDisplay:10.37,2013-07-22 09:12:00,
2013-07-22 05:13:00,61.2,54.9,29.78,ESE,112,0.0,0.0,80,0.00,CLR,,0.00,WeatherDisplay:10.37,2013-07-22 09:13:00,
2013-07-22 05:15:00,61.2,54.9,29.78,ESE,112,0.0,0.0,80,0.00,CLR,,0.00,WeatherDisplay:10.37,2013-07-22 09:15:00,
2013-07-22 05:16:00,61.2,54.9,29.78,ESE,112,0.0,0.0,80,0.00,CLR,,0.00,WeatherDisplay:10.37,2013-07-22 09:16:00,
2013-07-22 05:18:00,61.2,54.9,29.78,ESE,112,0.0,0.0,80,0.00,CLR,,0.00,WeatherDisplay:10.37,2013-07-22 09:18:00,
2013-07-22 05:21:00,61.2,54.9,29.81,ESE,112,0.0,0.0,80,0.00,CLR,,0.00,WeatherDisplay:10.37,2013-07-22 09:21:00,
2013-07-22 05:23:00,61.0,54.8,29.81,ESE,112,0.0,0.0,80,0.00,CLR,,0.00,WeatherDisplay:10.37,2013-07-22 09:23:00,
2013-07-22 05:24:00,61.2,54.9,29.81,ESE,112,0.0,0.0,80,0.00,CLR,,0.00,WeatherDisplay:10.37,2013-07-22 09:24:00,
2013-07-22 05:26:00,61.2,54.9,29.81,ESE,112,0.0,0.0,80,0.00,CLR,,0.00,WeatherDisplay:10.37,2013-07-22 09:26:00,
2013-07-22 05:28:00,61.2,54.9,29.81,ESE,112,0.0,0.0,80,0.00,CLR,,0.00,WeatherDisplay:10.37,2013-07-22 09:28:00,
2013-07-22 05:29:00,61.2,54.6,29.81,ESE,112,0.0,0.0,79,0.00,CLR,,0.00,WeatherDisplay:10.37,2013-07-22 09:29:00,
2013-07-22 05:31:00,61.0,54.4,29.81,ESE,112,0.0,0.0,79,0.00,CLR,,0.00,WeatherDisplay:10.37,2013-07-22 09:31:00,
2013-07-22 05:33:00,61.0,54.4,29.81,ESE,112,0.0,0.0,79,0.00,CLR,,0.00,WeatherDisplay:10.37,2013-07-22 09:33:00,
2013-07-22 05:34:00,61.0,54.4,29.81,ESE,112,0.0,0.0,79,0.00,CLR,,0.00,WeatherDisplay:10.37,2013-07-22 09:34:00,
2013-07-22 05:36:00,61.2,54.6,29.81,ESE,112,0.0,0.0,79,0.00,CLR,,0.00,WeatherDisplay:10.37,2013-07-22 09:36:00,
2013-07-22 05:38:00,61.3,55.1,29.81,ESE,112,0.0,0.0,80,0.00,CLR,,0.00,WeatherDisplay:10.37,2013-07-22 09:38:00,
2013-07-22 05:39:00,61.3,55.1,29.81,ESE,112,0.0,0.0,80,0.00,CLR,,0.00,WeatherDisplay:10.37,2013-07-22 09:39:00,
2013-07-22 05:41:00,61.3,55.1,29.81,ESE,112,0.0,0.0,80,0.00,CLR,,0.00,WeatherDisplay:10.37,2013-07-22 09:41:00,
2013-07-22 05:42:00,61.3,55.1,29.81,ESE,112,0.0,0.0,80,0.00,CLR,,0.00,WeatherDisplay:10.37,2013-07-22 09:42:00,
2013-07-22 05:44:00,61.3,55.1,29.81,ESE,112,0.0,0.0,80,0.00,CLR,,0.00,WeatherDisplay:10.37,2013-07-22 09:44:00,
2013-07-22 05:47:00,61.3,54.8,29.81,ESE,112,0.0,0.0,79,0.00,CLR,,0.00,WeatherDisplay:10.37,2013-07-22 09:47:00,
2013-07-22 05:49:00,61.3,54.8,29.81,ESE,112,0.0,0.0,79,0.00,CLR,,0.00,WeatherDisplay:10.37,2013-07-22 09:49:00,
2013-07-22 05:52:00,61.5,54.9,29.78,ESE,112,0.0,0.0,79,0.00,CLR,,0.00,WeatherDisplay:10.37,2013-07-22 09:52:00,
2013-07-22 05:54:00,61.3,54.8,29.78,ESE,112,0.0,0.0,79,0.00,CLR,,0.00,WeatherDisplay:10.37,2013-07-22 09:54:00,
2013-07-22 05:55:00,61.3,54.8,29.78,ESE,112,0.0,0.0,79,0.00,CLR,,0.00,WeatherDisplay:10.37,2013-07-22 09:55:00,
2013-07-22 05:57:00,61.2,54.2,29.78,ESE,112,0.0,0.0,78,0.00,CLR,,0.00,WeatherDisplay:10.37,2013-07-22 09:57:00,
2013-07-22 05:59:00,61.2,54.2,29.78,ESE,112,0.0,0.0,78,0.00,CLR,,0.00,WeatherDisplay:10.37,2013-07-22 09:59:00,
2013-07-22 06:00:00,61.2,54.2,29.78,ESE,112,0.0,0.0,78,0.00,CLR,,0.00,WeatherDisplay:10.37,2013-07-22 10:00:00,
2013-07-22 06:02:00,61.2,54.2,29.78,ESE,112,0.0,0.0,78,0.00,CLR,,0.00,WeatherDisplay:10.37,2013-07-22 10:02:00,
2013-07-22 06:04:00,61.2,54.6,29.78,ESE,112,0.0,0.0,79,0.00,CLR,,0.00,WeatherDisplay:10.37,2013-07-22 10:04:00,
2013-07-22 06:05:00,61.2,54.6,29.78,ESE,112,0.0,0.0,79,0.00,CLR,,0.00,WeatherDisplay:10.37,2013-07-22 10:05:00,
2013-07-22 06:07:00,61.2,54.6,29.78,ESE,112,0.0,0.0,79,0.00,CLR,,0.00,WeatherDisplay:10.37,2013-07-22 10:07:00,
2013-07-22 06:09:00,61.2,54.6,29.78,ESE,112,0.0,0.0,79,0.00,CLR,,0.00,WeatherDisplay:10.37,2013-07-22 10:09:00,
2013-07-22 06:10:00,61.3,54.8,29.78,ESE,112,0.0,0.0,79,0.00,CLR,,0.00,WeatherDisplay:10.37,2013-07-22 10:10:00,
2013-07-22 06:12:00,61.3,54.8,29.78,ESE,112,0.0,0.0,79,0.00,CLR,,0.00,WeatherDisplay:10.37,2013-07-22 10:12:00,
2013-07-22 06:13:00,61.3,54.8,29.78,ESE,112,0.0,0.0,79,0.00,CLR,,0.00,WeatherDisplay:10.37,2013-07-22 10:13:00,
2013-07-22 06:14:00,61.3,54.8,29.78,ESE,112,0.0,0.0,79,0.00,CLR,,0.00,WeatherDisplay:10.37,2013-07-22 10:14:00,
2013-07-22 06:15:00,61.3,54.8,29.78,ESE,112,0.0,0.0,79,0.00,CLR,,0.00,WeatherDisplay:10.37,2013-07-22 10:15:00,
2013-07-22 06:16:00,61.3,54.8,29.78,ESE,112,0.0,0.0,79,0.00,CLR,,0.00,WeatherDisplay:10.37,2013-07-22 10:16:00,
2013-07-22 06:17:00,61.5,54.9,29.78,ESE,112,0.0,0.0,79,0.00,CLR,,0.00,WeatherDisplay:10.37,2013-07-22 10:17:00,
2013-07-22 06:18:00,61.5,54.9,29.78,ESE,112,0.0,0.0,79,0.00,CLR,,0.00,WeatherDisplay:10.37,2013-07-22 10:18:00,
2013-07-22 06:19:00,61.3,54.8,29.78,ESE,112,0.0,0.0,79,0.00,CLR,,0.00,WeatherDisplay:10.37,2013-07-22 10:19:00,
2013-07-22 06:20:00,61.3,54.8,29.78,ESE,112,0.0,0.0,79,0.00,CLR,,0.00,WeatherDisplay:10.37,2013-07-22 10:20:00,
2013-07-22 06:21:00,61.3,54.8,29.81,ESE,112,0.0,0.0,79,0.00,CLR,,0.00,WeatherDisplay:10.37,2013-07-22 10:21:00,
2013-07-22 06:23:00,61.3,54.8,29.81,ESE,112,0.0,0.0,79,0.00,CLR,,0.00,WeatherDisplay:10.37,2013-07-22 10:23:00,
2013-07-22 06:24:00,61.3,54.8,29.81,ESE,112,0.0,0.0,79,0.00,CLR,,0.00,WeatherDisplay:10.37,2013-07-22 10:24:00,
2013-07-22 06:25:00,61.3,55.1,29.81,ESE,112,0.0,0.0,80,0.00,CLR,,0.00,WeatherDisplay:10.37,2013-07-22 10:25:00,
2013-07-22 06:26:00,61.3,55.1,29.81,ESE,112,0.0,0.0,80,0.00,CLR,,0.00,WeatherDisplay:10.37,2013-07-22 10:26:00,
2013-07-22 06:28:00,61.5,55.3,29.81,ESE,112,0.0,0.0,80,0.00,CLR,,0.00,WeatherDisplay:10.37,2013-07-22 10:28:00,
2013-07-22 06:29:00,61.5,55.3,29.81,ESE,112,0.0,0.0,80,0.00,CLR,,0.00,WeatherDisplay:10.37,2013-07-22 10:29:00,
2013-07-22 06:30:00,61.5,55.3,29.81,ESE,112,0.0,0.0,80,0.00,CLR,,0.00,WeatherDisplay:10.37,2013-07-22 10:30:00,
2013-07-22 06:31:00,61.5,55.3,29.81,ESE,112,0.0,0.0,80,0.00,CLR,,0.00,WeatherDisplay:10.37,2013-07-22 10:31:00,
2013-07-22 06:33:00,61.7,55.5,29.81,ESE,112,0.0,0.0,80,0.00,CLR,,0.00,WeatherDisplay:10.37,2013-07-22 10:33:00,
2013-07-22 06:34:00,61.7,55.5,29.81,ESE,112,0.0,0.0,80,0.00,CLR,,0.00,WeatherDisplay:10.37,2013-07-22 10:34:00,
2013-07-22 06:35:00,61.7,55.5,29.81,ESE,112,0.0,0.0,80,0.00,CLR,,0.00,WeatherDisplay:10.37,2013-07-22 10:35:00,
2013-07-22 06:36:00,61.9,55.6,29.81,ESE,112,0.0,0.0,80,0.00,CLR,,0.00,WeatherDisplay:10.37,2013-07-22 10:36:00,
2013-07-22 06:38:00,62.1,55.8,29.81,ESE,112,0.0,0.0,80,0.00,CLR,,0.00,WeatherDisplay:10.37,2013-07-22 10:38:00,
2013-07-22 06:39:00,62.1,55.8,29.81,ESE,112,0.0,0.0,80,0.00,CLR,,0.00,WeatherDisplay:10.37,2013-07-22 10:39:00,
2013-07-22 06:40:00,62.2,56.0,29.81,ESE,112,0.0,0.0,80,0.00,CLR,,0.00,WeatherDisplay:10.37,2013-07-22 10:40:00,
2013-07-22 06:41:00,62.2,56.0,29.81,ESE,112,0.0,0.0,80,0.00,CLR,,0.00,WeatherDisplay:10.37,2013-07-22 10:41:00,
2013-07-22 06:42:00,62.4,56.2,29.81,ESE,112,0.0,0.0,80,0.00,CLR,,0.00,WeatherDisplay:10.37,2013-07-22 10:42:00,
2013-07-22 06:43:00,62.8,56.5,29.81,ESE,112,0.0,0.0,80,0.00,CLR,,0.00,WeatherDisplay:10.37,2013-07-22 10:43:00,
2013-07-22 06:44:00,62.8,56.5,29.81,ESE,112,0.0,0.0,80,0.00,CLR,,0.00,WeatherDisplay:10.37,2013-07-22 10:44:00,
2013-07-22 06:45:00,62.8,56.5,29.81,ESE,112,0.0,0.0,80,0.00,CLR,,0.00,WeatherDisplay:10.37,2013-07-22 10:45:00,
2013-07-22 06:46:00,63.0,56.7,29.81,ESE,112,0.0,0.0,80,0.00,CLR,,0.00,WeatherDisplay:10.37,2013-07-22 10:46:00,
2013-07-22 06:47:00,63.0,56.7,29.81,ESE,112,0.0,0.0,80,0.00,CLR,,0.00,WeatherDisplay:10.37,2013-07-22 10:47:00,
2013-07-22 06:48:00,63.1,56.9,29.81,ESE,112,0.0,0.0,80,0.00,CLR,,0.00,WeatherDisplay:10.37,2013-07-22 10:48:00,
2013-07-22 06:50:00,63.3,57.0,29.81,ESE,112,0.0,0.0,80,0.00,CLR,,0.00,WeatherDisplay:10.37,2013-07-22 10:50:00,
2013-07-22 06:51:00,63.5,56.9,29.78,ESE,112,0.0,0.0,79,0.00,CLR,,0.00,WeatherDisplay:10.37,2013-07-22 10:51:00,
2013-07-22 06:52:00,63.5,56.9,29.78,ESE,112,0.0,0.0,79,0.00,CLR,,0.00,WeatherDisplay:10.37,2013-07-22 10:52:00,
2013-07-22 06:53:00,63.5,56.9,29.78,ESE,112,0.0,0.0,79,0.00,CLR,,0.00,WeatherDisplay:10.37,2013-07-22 10:53:00,
2013-07-22 06:55:00,63.7,57.0,29.78,ESE,112,0.0,0.0,79,0.00,CLR,,0.00,WeatherDisplay:10.37,2013-07-22 10:55:00,
2013-07-22 06:56:00,63.7,57.0,29.78,ESE,112,0.0,0.0,79,0.00,CLR,,0.00,WeatherDisplay:10.37,2013-07-22 10:56:00,
2013-07-22 06:57:00,63.9,57.2,29.78,ESE,112,0.0,0.0,79,0.00,CLR,,0.00,WeatherDisplay:10.37,2013-07-22 10:57:00,
2013-07-22 06:59:00,64.0,57.4,29.78,ESE,112,0.0,0.0,79,0.00,CLR,,0.00,WeatherDisplay:10.37,2013-07-22 10:59:00,
2013-07-22 07:00:00,64.2,57.6,29.78,ESE,112,0.0,0.0,79,0.00,CLR,,0.00,WeatherDisplay:10.37,2013-07-22 11:00:00,
2013-07-22 07:01:00,64.2,57.6,29.78,ESE,112,0.0,0.0,79,0.00,CLR,,0.00,WeatherDisplay:10.37,2013-07-22 11:01:00,
2013-07-22 07:02:00,64.4,57.7,29.78,ESE,112,0.0,0.0,79,0.00,CLR,,0.00,WeatherDisplay:10.37,2013-07-22 11:02:00,
2013-07-22 07:03:00,64.4,57.7,29.78,ESE,112,0.0,0.0,79,0.00,CLR,,0.00,WeatherDisplay:10.37,2013-07-22 11:03:00,
2013-07-22 07:04:00,64.4,57.4,29.78,ESE,112,0.0,0.0,78,0.00,CLR,,0.00,WeatherDisplay:10.37,2013-07-22 11:04:00,
2013-07-22 07:05:00,64.8,57.7,29.78,ESE,112,0.0,0.0,78,0.00,CLR,,0.00,WeatherDisplay:10.37,2013-07-22 11:05:00,
2013-07-22 07:06:00,64.8,57.7,29.78,ESE,112,0.0,0.0,78,0.00,CLR,,0.00,WeatherDisplay:10.37,2013-07-22 11:06:00,
2013-07-22 07:07:00,64.8,57.7,29.78,ESE,112,0.0,0.0,78,0.00,CLR,,0.00,WeatherDisplay:10.37,2013-07-22 11:07:00,
2013-07-22 07:08:00,64.9,57.9,29.78,ESE,112,0.0,0.0,78,0.00,CLR,,0.00,WeatherDisplay:10.37,2013-07-22 11:08:00,
2013-07-22 07:10:00,64.9,57.9,29.78,ESE,112,0.0,0.0,78,0.00,CLR,,0.00,WeatherDisplay:10.37,2013-07-22 11:10:00,
2013-07-22 07:11:00,65.1,57.7,29.78,ESE,112,0.0,0.0,77,0.00,CLR,,0.00,WeatherDisplay:10.37,2013-07-22 11:11:00,
2013-07-22 07:12:00,65.1,57.7,29.78,ESE,112,0.0,0.0,77,0.00,CLR,,0.00,WeatherDisplay:10.37,2013-07-22 11:12:00,
2013-07-22 07:13:00,65.1,57.7,29.78,ESE,112,0.0,0.0,77,0.00,CLR,,0.00,WeatherDisplay:10.37,2013-07-22 11:13:00,
2013-07-22 07:15:00,65.1,57.4,29.78,ESE,112,0.0,0.0,76,0.00,CLR,,0.00,WeatherDisplay:10.37,2013-07-22 11:15:00,
2013-07-22 07:17:00,65.3,57.5,29.78,ESE,112,0.0,0.0,76,0.00,CLR,,0.00,WeatherDisplay:10.37,2013-07-22 11:17:00,
2013-07-22 07:18:00,65.3,57.5,29.78,ESE,112,0.0,0.0,76,0.00,CLR,,0.00,WeatherDisplay:10.37,2013-07-22 11:18:00,
2013-07-22 07:20:00,65.5,57.3,29.78,ESE,112,0.0,0.0,75,0.00,CLR,,0.00,WeatherDisplay:10.37,2013-07-22 11:20:00,
2013-07-22 07:22:00,65.7,57.1,29.78,ESE,112,0.0,0.0,74,0.00,CLR,,0.00,WeatherDisplay:10.37,2013-07-22 11:22:00,
2013-07-22 07:23:00,65.7,57.1,29.78,ESE,112,0.0,0.0,74,0.00,CLR,,0.00,WeatherDisplay:10.37,2013-07-22 11:23:00,
2013-07-22 07:25:00,65.8,56.9,29.78,ESE,112,0.0,0.0,73,0.00,CLR,,0.00,WeatherDisplay:10.37,2013-07-22 11:25:00,
2013-07-22 07:26:00,65.8,56.9,29.78,ESE,112,0.0,0.0,73,0.00,CLR,,0.00,WeatherDisplay:10.37,2013-07-22 11:26:00,
2013-07-22 07:27:00,65.8,56.9,29.78,ESE,112,0.0,0.0,73,0.00,CLR,,0.00,WeatherDisplay:10.37,2013-07-22 11:27:00,
2013-07-22 07:28:00,66.0,56.7,29.78,ESE,112,0.0,0.0,72,0.00,CLR,,0.00,WeatherDisplay:10.37,2013-07-22 11:28:00,
2013-07-22 07:31:00,66.2,56.5,29.78,ESE,112,0.0,0.0,71,0.00,CLR,,0.00,WeatherDisplay:10.37,2013-07-22 11:31:00,
2013-07-22 07:32:00,66.2,56.5,29.78,ESE,112,0.0,0.0,71,0.00,CLR,,0.00,WeatherDisplay:10.37,2013-07-22 11:32:00,
2013-07-22 07:33:00,66.2,56.5,29.78,ESE,112,0.0,0.0,71,0.00,CLR,,0.00,WeatherDisplay:10.37,2013-07-22 11:33:00,
2013-07-22 07:36:00,66.6,56.5,29.78,ESE,112,0.0,0.0,70,0.00,CLR,,0.00,WeatherDisplay:10.37,2013-07-22 11:36:00,
2013-07-22 07:38:00,66.7,56.6,29.78,ESE,112,0.0,0.0,70,0.00,CLR,,0.00,WeatherDisplay:10.37,2013-07-22 11:38:00,
2013-07-22 07:39:00,66.7,56.6,29.78,ESE,112,0.0,0.0,70,0.00,CLR,,0.00,WeatherDisplay:10.37,2013-07-22 11:39:00,
2013-07-22 07:41:00,66.9,56.4,29.78,ESE,112,0.0,0.0,69,0.00,CLR,,0.00,WeatherDisplay:10.37,2013-07-22 11:41:00,
2013-07-22 07:43:00,67.1,56.6,29.78,ESE,112,0.0,0.0,69,0.00,CLR,,0.00,WeatherDisplay:10.37,2013-07-22 11:43:00,
2013-07-22 07:44:00,67.1,56.6,29.78,East,90,0.0,0.0,69,0.00,CLR,,0.00,WeatherDisplay:10.37,2013-07-22 11:44:00,
2013-07-22 07:46:00,67.3,56.4,29.78,SE,135,0.0,0.0,68,0.00,CLR,,0.00,WeatherDisplay:10.37,2013-07-22 11:46:00,
2013-07-22 07:47:00,67.3,56.4,29.78,SE,135,0.0,0.0,68,0.00,CLR,,0.00,WeatherDisplay:10.37,2013-07-22 11:47:00,
2013-07-22 07:48:00,67.3,55.9,29.78,ESE,112,0.0,0.0,67,0.00,CLR,,0.00,WeatherDisplay:10.37,2013-07-22 11:48:00,
2013-07-22 07:49:00,67.5,56.1,29.78,ESE,112,0.0,0.0,67,0.00,CLR,,0.00,WeatherDisplay:10.37,2013-07-22 11:49:00,
2013-07-22 07:51:00,67.6,56.3,29.78,ESE,112,0.0,0.0,67,0.00,CLR,,0.00,WeatherDisplay:10.37,2013-07-22 11:51:00,
2013-07-22 07:52:00,67.6,55.5,29.78,ESE,112,2.3,2.3,65,0.00,CLR,,0.00,WeatherDisplay:10.37,2013-07-22 11:52:00,
2013-07-22 07:53:00,67.6,55.9,29.78,ESE,112,2.3,0.0,66,0.00,CLR,,0.00,WeatherDisplay:10.37,2013-07-22 11:53:00,
2013-07-22 07:54:00,67.8,56.0,29.78,ESE,112,0.0,0.0,66,0.00,CLR,,0.00,WeatherDisplay:10.37,2013-07-22 11:54:00,
2013-07-22 07:57:00,68.0,56.2,29.78,ESE,112,0.0,0.0,66,0.00,CLR,,0.00,WeatherDisplay:10.37,2013-07-22 11:57:00,
2013-07-22 07:58:00,68.0,56.2,29.78,ESE,112,0.0,0.0,66,0.00,CLR,,0.00,WeatherDisplay:10.37,2013-07-22 11:58:00,
2013-07-22 07:59:00,68.0,55.8,29.78,ESE,112,0.0,0.0,65,0.00,CLR,,0.00,WeatherDisplay:10.37,2013-07-22 11:59:00,
2013-07-22 08:00:00,68.0,55.8,29.78,ESE,112,0.0,0.0,65,0.00,CLR,,0.00,WeatherDisplay:10.37,2013-07-22 12:00:00,
2013-07-22 08:02:00,68.2,54.7,29.78,ESE,112,1.2,0.0,62,0.00,CLR,,0.00,WeatherDisplay:10.37,2013-07-22 12:02:00,
2013-07-22 08:03:00,68.4,55.7,29.78,ESE,112,0.0,0.0,64,0.00,CLR,,0.00,WeatherDisplay:10.37,2013-07-22 12:03:00,
2013-07-22 08:04:00,68.4,55.7,29.78,SSE,158,0.0,0.0,64,0.00,CLR,,0.00,WeatherDisplay:10.37,2013-07-22 12:04:00,
2013-07-22 08:05:00,68.5,55.4,29.78,SSE,158,0.0,0.0,63,0.00,CLR,,0.00,WeatherDisplay:10.37,2013-07-22 12:05:00,
2013-07-22 08:08:00,68.4,53.9,29.78,SSE,158,0.0,0.0,60,0.00,CLR,,0.00,WeatherDisplay:10.37,2013-07-22 12:08:00,
2013-07-22 08:09:00,68.7,54.7,29.78,SSE,158,0.0,0.0,61,0.00,CLR,,0.00,WeatherDisplay:10.37,2013-07-22 12:09:00,
2013-07-22 08:10:00,68.7,54.7,29.78,SSE,158,0.0,0.0,61,0.00,CLR,,0.00,WeatherDisplay:10.37,2013-07-22 12:10:00,
2013-07-22 08:13:00,69.1,55.1,29.78,SSE,158,0.0,0.0,61,0.00,CLR,,0.00,WeatherDisplay:10.37,2013-07-22 12:13:00,
2013-07-22 08:14:00,69.3,55.7,29.78,SSE,158,0.0,0.0,62,0.00,CLR,,0.00,WeatherDisplay:10.37,2013-07-22 12:14:00,
2013-07-22 08:15:00,69.3,55.7,29.78,SSE,158,0.0,0.0,62,0.00,CLR,,0.00,WeatherDisplay:10.37,2013-07-22 12:15:00,
2013-07-22 08:18:00,69.4,53.5,29.78,ESE,112,2.3,2.3,57,0.00,CLR,,0.00,WeatherDisplay:10.37,2013-07-22 12:18:00,
2013-07-22 08:20:00,69.6,54.7,29.78,ESE,112,2.3,0.0,59,0.00,CLR,,0.00,WeatherDisplay:10.37,2013-07-22 12:20:00,
2013-07-22 08:23:00,69.8,54.8,29.78,ESE,112,0.0,0.0,59,0.00,CLR,,0.00,WeatherDisplay:10.37,2013-07-22 12:23:00,
2013-07-22 08:25:00,70.0,54.0,29.78,ESE,112,0.0,0.0,57,0.00,CLR,,0.00,WeatherDisplay:10.37,2013-07-22 12:25:00,
2013-07-22 08:28:00,70.2,53.2,29.78,SSE,158,1.2,0.0,55,0.00,CLR,,0.00,WeatherDisplay:10.37,2013-07-22 12:28:00,
2013-07-22 08:30:00,70.5,54.1,29.78,SE,135,2.4,0.0,56,0.00,CLR,,0.00,WeatherDisplay:10.37,2013-07-22 12:30:00,
2013-07-22 08:32:00,70.5,53.1,29.78,WSW,248,2.3,0.0,54,0.00,CLR,,0.00,WeatherDisplay:10.37,2013-07-22 12:32:00,
2013-07-22 08:33:00,70.5,51.5,29.78,South,180,2.3,0.0,51,0.00,CLR,,0.00,WeatherDisplay:10.37,2013-07-22 12:33:00,
2013-07-22 08:34:00,70.7,52.2,29.78,SSE,158,1.2,0.0,52,0.00,CLR,,0.00,WeatherDisplay:10.37,2013-07-22 12:34:00,
2013-07-22 08:35:00,70.9,51.8,29.78,SSE,158,0.0,0.0,51,0.00,CLR,,0.00,WeatherDisplay:10.37,2013-07-22 12:35:00,
2013-07-22 08:37:00,70.9,50.2,29.78,ESE,112,2.3,0.0,48,0.00,CLR,,0.00,WeatherDisplay:10.37,2013-07-22 12:37:00,
2013-07-22 08:38:00,71.1,52.0,29.78,North,0,0.9,0.0,51,0.00,CLR,,0.00,WeatherDisplay:10.37,2013-07-22 12:38:00,
2013-07-22 08:39:00,71.1,52.0,29.78,SSE,158,1.2,1.2,51,0.00,CLR,,0.00,WeatherDisplay:10.37,2013-07-22 12:39:00,
2013-07-22 08:40:00,71.1,52.0,29.78,SE,135,2.0,0.0,51,0.00,CLR,,0.00,WeatherDisplay:10.37,2013-07-22 12:40:00,
2013-07-22 08:42:00,71.1,50.4,29.78,East,90,2.9,0.0,48,0.00,CLR,,0.00,WeatherDisplay:10.37,2013-07-22 12:42:00,
2013-07-22 08:43:00,71.1,50.4,29.78,SSE,158,2.3,2.3,48,0.00,CLR,,0.00,WeatherDisplay:10.37,2013-07-22 12:43:00,
2013-07-22 08:44:00,71.1,50.4,29.78,SSE,158,2.3,2.3,48,0.00,CLR,,0.00,WeatherDisplay:10.37,2013-07-22 12:44:00,
2013-07-22 08:45:00,71.1,50.4,29.78,SSE,158,2.3,0.0,48,0.00,CLR,,0.00,WeatherDisplay:10.37,2013-07-22 12:45:00,
2013-07-22 08:47:00,71.2,50.0,29.78,SE,135,1.4,1.4,47,0.00,CLR,,0.00,WeatherDisplay:10.37,2013-07-22 12:47:00,
2013-07-22 08:48:00,71.2,50.0,29.78,SE,135,2.2,2.2,47,0.00,CLR,,0.00,WeatherDisplay:10.37,2013-07-22 12:48:00,
2013-07-22 08:49:00,71.2,49.4,29.78,NNW,338,2.3,2.3,46,0.00,CLR,,0.00,WeatherDisplay:10.37,2013-07-22 12:49:00,
2013-07-22 08:50:00,71.4,48.4,29.78,ESE,112,2.9,0.0,44,0.00,CLR,,0.00,WeatherDisplay:10.37,2013-07-22 12:50:00,
2013-07-22 08:52:00,71.4,48.4,29.78,SSE,158,3.1,0.0,44,0.00,CLR,,0.00,WeatherDisplay:10.37,2013-07-22 12:52:00,
2013-07-22 08:53:00,71.4,48.4,29.78,SSE,158,3.5,3.5,44,0.00,CLR,,0.00,WeatherDisplay:10.37,2013-07-22 12:53:00,
2013-07-22 08:54:00,71.8,49.3,29.78,SSE,158,0.0,0.0,45,0.00,CLR,,0.00,WeatherDisplay:10.37,2013-07-22 12:54:00,
2013-07-22 08:55:00,71.8,49.3,29.78,SSE,158,2.3,0.0,45,0.00,CLR,,0.00,WeatherDisplay:10.37,2013-07-22 12:55:00,
2013-07-22 08:58:00,72.0,48.9,29.78,SSE,158,1.4,1.4,44,0.00,CLR,,0.00,WeatherDisplay:10.37,2013-07-22 12:58:00,
2013-07-22 08:59:00,72.1,49.0,29.78,ESE,112,1.2,0.0,44,0.00,CLR,,0.00,WeatherDisplay:10.37,2013-07-22 12:59:00,
2013-07-22 09:00:00,72.1,49.0,29.78,ESE,112,2.3,0.0,44,0.00,CLR,,0.00,WeatherDisplay:10.37,2013-07-22 13:00:00,
2013-07-22 09:01:00,72.1,49.6,29.78,NNW,338,2.3,0.0,45,0.00,CLR,,0.00,WeatherDisplay:10.37,2013-07-22 13:01:00,
2013-07-22 09:03:00,72.3,48.6,29.78,SE,135,0.0,0.0,43,0.00,CLR,,0.00,WeatherDisplay:10.37,2013-07-22 13:03:00,
2013-07-22 09:04:00,72.3,49.2,29.78,NE,45,0.0,0.0,44,0.00,CLR,,0.00,WeatherDisplay:10.37,2013-07-22 13:04:00,
2013-07-22 09:05:00,72.3,49.2,29.78,ESE,112,3.5,0.0,44,0.00,CLR,,0.00,WeatherDisplay:10.37,2013-07-22 13:05:00,
2013-07-22 09:06:00,72.3,47.9,29.78,South,180,3.5,3.5,42,0.00,CLR,,0.00,WeatherDisplay:10.37,2013-07-22 13:06:00,
2013-07-22 09:08:00,72.3,46.6,29.78,ESE,112,3.5,0.0,40,0.00,CLR,,0.00,WeatherDisplay:10.37,2013-07-22 13:08:00,
2013-07-22 09:09:00,72.3,47.3,29.78,ESE,112,1.2,0.0,41,0.00,CLR,,0.00,WeatherDisplay:10.37,2013-07-22 13:09:00,
2013-07-22 09:10:00,72.3,47.9,29.78,ESE,112,0.0,0.0,42,0.00,CLR,,0.00,WeatherDisplay:10.37,2013-07-22 13:10:00,
2013-07-22 09:11:00,72.5,48.1,29.78,SSE,158,1.2,0.0,42,0.00,CLR,,0.00,WeatherDisplay:10.37,2013-07-22 13:11:00,
2013-07-22 09:13:00,72.5,47.5,29.78,SSE,158,1.2,0.0,41,0.00,CLR,,0.00,WeatherDisplay:10.37,2013-07-22 13:13:00,
2013-07-22 09:14:00,72.5,46.8,29.78,SSE,158,1.2,1.2,40,0.00,CLR,,0.00,WeatherDisplay:10.37,2013-07-22 13:14:00,
2013-07-22 09:15:00,72.5,46.8,29.78,SSE,158,2.3,2.3,40,0.00,CLR,,0.00,WeatherDisplay:10.37,2013-07-22 13:15:00,
2013-07-22 09:16:00,72.5,47.5,29.78,SSE,158,1.2,1.2,41,0.00,CLR,,0.00,WeatherDisplay:10.37,2013-07-22 13:16:00,
2013-07-22 09:18:00,72.7,47.6,29.78,ESE,112,0.0,0.0,41,0.00,CLR,,0.00,WeatherDisplay:10.37,2013-07-22 13:18:00,
2013-07-22 09:19:00,72.7,47.6,29.78,SW,225,2.3,2.3,41,0.00,CLR,,0.00,WeatherDisplay:10.37,2013-07-22 13:19:00,
2013-07-22 09:20:00,72.5,47.5,29.78,SE,135,1.2,1.2,41,0.00,CLR,,0.00,WeatherDisplay:10.37,2013-07-22 13:20:00,
2013-07-22 09:21:00,72.5,47.5,29.78,SE,135,2.3,2.3,41,0.00,CLR,,0.00,WeatherDisplay:10.37,2013-07-22 13:21:00,
2013-07-22 09:23:00,72.5,46.8,29.78,SSE,158,1.4,0.0,40,0.00,CLR,,0.00,WeatherDisplay:10.37,2013-07-22 13:23:00,
2013-07-22 09:24:00,72.3,45.3,29.78,SW,225,1.6,0.0,38,0.00,CLR,,0.00,WeatherDisplay:10.37,2013-07-22 13:24:00,
2013-07-22 09:25:00,72.3,46.0,29.78,SE,135,2.3,2.3,39,0.00,CLR,,0.00,WeatherDisplay:10.37,2013-07-22 13:25:00,
2013-07-22 09:26:00,72.3,46.0,29.78,SE,135,0.0,0.9,39,0.00,CLR,,0.00,WeatherDisplay:10.37,2013-07-22 13:26:00,
2013-07-22 09:28:00,72.3,46.0,29.78,SSE,158,1.2,1.2,39,0.00,CLR,,0.00,WeatherDisplay:10.37,2013-07-22 13:28:00,
2013-07-22 09:31:00,72.5,46.8,29.78,SE,135,2.3,2.3,40,0.00,CLR,,0.00,WeatherDisplay:10.37,2013-07-22 13:31:00,
2013-07-22 09:32:00,72.5,46.8,29.78,SE,135,2.3,2.3,40,0.00,CLR,,0.00,WeatherDisplay:10.37,2013-07-22 13:32:00,
2013-07-22 09:33:00,72.7,47.6,29.78,SSE,158,1.2,0.0,41,0.00,CLR,,0.00,WeatherDisplay:10.37,2013-07-22 13:33:00,
2013-07-22 09:36:00,73.2,48.7,29.78,SE,135,0.0,0.0,42,0.00,CLR,,0.00,WeatherDisplay:10.37,2013-07-22 13:36:00,
2013-07-22 09:37:00,73.2,48.7,29.78,ESE,112,0.0,0.0,42,0.00,CLR,,0.00,WeatherDisplay:10.37,2013-07-22 13:37:00,
2013-07-22 09:39:00,73.4,48.3,29.78,SE,135,0.0,0.0,41,0.00,CLR,,0.00,WeatherDisplay:10.37,2013-07-22 13:39:00,
2013-07-22 09:41:00,73.8,49.2,29.78,NE,45,0.0,0.0,42,0.00,CLR,,0.00,WeatherDisplay:10.37,2013-07-22 13:41:00,
2013-07-22 09:42:00,73.8,49.2,29.78,NE,45,0.0,0.0,42,0.00,CLR,,0.00,WeatherDisplay:10.37,2013-07-22 13:42:00,
2013-07-22 09:44:00,73.8,49.2,29.78,East,90,0.0,0.0,42,0.00,CLR,,0.00,WeatherDisplay:10.37,2013-07-22 13:44:00,
2013-07-22 09:46:00,73.9,48.7,29.78,North,0,2.3,2.3,41,0.00,CLR,,0.00,WeatherDisplay:10.37,2013-07-22 13:46:00,
2013-07-22 09:47:00,73.9,48.7,29.78,NNW,338,1.2,0.0,41,0.00,CLR,,0.00,WeatherDisplay:10.37,2013-07-22 13:47:00,
2013-07-22 09:49:00,73.9,48.1,29.78,South,180,1.4,1.4,40,0.00,CLR,,0.00,WeatherDisplay:10.37,2013-07-22 13:49:00,
2013-07-22 09:51:00,73.8,46.6,29.75,SSW,202,1.2,1.2,38,0.00,CLR,,0.00,WeatherDisplay:10.37,2013-07-22 13:51:00,
2013-07-22 09:52:00,73.8,46.6,29.75,ESE,112,2.3,0.0,38,0.00,CLR,,0.00,WeatherDisplay:10.37,2013-07-22 13:52:00,
2013-07-22 09:54:00,73.8,45.9,29.75,ESE,112,3.5,3.5,37,0.00,CLR,,0.00,WeatherDisplay:10.37,2013-07-22 13:54:00,
2013-07-22 09:57:00,73.8,47.3,29.75,SSE,158,0.0,0.0,39,0.00,CLR,,0.00,WeatherDisplay:10.37,2013-07-22 13:57:00,
2013-07-22 09:59:00,73.9,47.4,29.75,SE,135,0.0,0.0,39,0.00,CLR,,0.00,WeatherDisplay:10.37,2013-07-22 13:59:00,
2013-07-22 10:02:00,74.1,47.6,29.75,SE,135,1.2,0.0,39,0.00,CLR,,0.00,WeatherDisplay:10.37,2013-07-22 14:02:00,
2013-07-22 10:03:00,74.3,48.4,29.75,SE,135,0.0,0.0,40,0.00,CLR,,0.00,WeatherDisplay:10.37,2013-07-22 14:03:00,
2013-07-22 10:04:00,74.7,48.7,29.75,SE,135,0.0,0.0,40,0.00,CLR,,0.00,WeatherDisplay:10.37,2013-07-22 14:04:00,
2013-07-22 10:07:00,75.0,49.1,29.75,East,90,1.2,0.0,40,0.00,CLR,,0.00,WeatherDisplay:10.37,2013-07-22 14:07:00,
2013-07-22 10:08:00,75.2,48.5,29.75,East,90,1.2,0.0,39,0.00,CLR,,0.00,WeatherDisplay:10.37,2013-07-22 14:08:00,
2013-07-22 10:09:00,75.2,48.5,29.75,ESE,112,1.2,0.0,39,0.00,CLR,,0.00,WeatherDisplay:10.37,2013-07-22 14:09:00,
2013-07-22 10:10:00,75.2,47.8,29.75,ESE,112,1.2,0.0,38,0.00,CLR,,0.00,WeatherDisplay:10.37,2013-07-22 14:10:00,
2013-07-22 10:12:00,75.6,48.9,29.75,ESE,112,0.0,0.0,39,0.00,CLR,,0.00,WeatherDisplay:10.37,2013-07-22 14:12:00,
2013-07-22 10:13:00,75.6,48.9,29.75,SSE,158,0.0,0.0,39,0.00,CLR,,0.00,WeatherDisplay:10.37,2013-07-22 14:13:00,
2013-07-22 10:14:00,75.7,48.3,29.75,SSE,158,0.0,0.0,38,0.00,CLR,,0.00,WeatherDisplay:10.37,2013-07-22 14:14:00,
2013-07-22 10:15:00,75.7,49.0,29.75,NNE,22,0.0,0.0,39,0.00,CLR,,0.00,WeatherDisplay:10.37,2013-07-22 14:15:00,
2013-07-22 10:17:00,75.9,48.5,29.75,ESE,112,1.2,1.2,38,0.00,CLR,,0.00,WeatherDisplay:10.37,2013-07-22 14:17:00,
2013-07-22 10:18:00,75.9,49.2,29.75,ESE,112,0.0,0.0,39,0.00,CLR,,0.00,WeatherDisplay:10.37,2013-07-22 14:18:00,
2013-07-22 10:19:00,75.7,49.0,29.75,ESE,112,0.0,0.0,39,0.00,CLR,,0.00,WeatherDisplay:10.37,2013-07-22 14:19:00,
2013-07-22 10:21:00,75.7,49.0,29.75,WNW,292,1.2,0.0,39,0.00,CLR,,0.00,WeatherDisplay:10.37,2013-07-22 14:21:00,
2013-07-22 10:22:00,75.6,48.9,29.75,SE,135,1.6,0.0,39,0.00,CLR,,0.00,WeatherDisplay:10.37,2013-07-22 14:22:00,
2013-07-22 10:23:00,75.7,48.3,29.75,SE,135,1.2,1.2,38,0.00,CLR,,0.00,WeatherDisplay:10.37,2013-07-22 14:23:00,
2013-07-22 10:24:00,75.7,48.3,29.75,SE,135,1.2,0.0,38,0.00,CLR,,0.00,WeatherDisplay:10.37,2013-07-22 14:24:00,
2013-07-22 10:26:00,76.3,49.5,29.75,SE,135,0.0,0.0,39,0.00,CLR,,0.00,WeatherDisplay:10.37,2013-07-22 14:26:00,
2013-07-22 10:27:00,76.5,50.3,29.75,SE,135,1.2,0.0,40,0.00,CLR,,0.00,WeatherDisplay:10.37,2013-07-22 14:27:00,
2013-07-22 10:28:00,76.5,48.2,29.75,SE,135,1.6,0.0,37,0.00,CLR,,0.00,WeatherDisplay:10.37,2013-07-22 14:28:00,
2013-07-22 10:29:00,76.5,48.2,29.75,SE,135,1.2,0.0,37,0.00,CLR,,0.00,WeatherDisplay:10.37,2013-07-22 14:29:00,
2013-07-22 10:30:00,76.5,49.7,29.75,SE,135,1.2,0.0,39,0.00,CLR,,0.00,WeatherDisplay:10.37,2013-07-22 14:30:00,
2013-07-22 10:31:00,76.6,50.5,29.75,SSW,202,1.6,0.0,40,0.00,CLR,,0.00,WeatherDisplay:10.37,2013-07-22 14:31:00,
2013-07-22 10:32:00,76.5,49.7,29.75,SSW,202,1.2,0.0,39,0.00,CLR,,0.00,WeatherDisplay:10.37,2013-07-22 14:32:00,
2013-07-22 10:33:00,76.5,49.0,29.75,South,180,3.1,0.0,38,0.00,CLR,,0.00,WeatherDisplay:10.37,2013-07-22 14:33:00,
2013-07-22 10:35:00,76.3,47.4,29.75,SSE,158,1.2,1.6,36,0.00,CLR,,0.00,WeatherDisplay:10.37,2013-07-22 14:35:00,
2013-07-22 10:37:00,76.5,49.0,29.75,SE,135,1.2,0.0,38,0.00,CLR,,0.00,WeatherDisplay:10.37,2013-07-22 14:37:00,
2013-07-22 10:38:00,76.5,49.0,29.75,SE,135,0.0,0.0,38,0.00,CLR,,0.00,WeatherDisplay:10.37,2013-07-22 14:38:00,
2013-07-22 10:40:00,76.6,48.4,29.75,East,90,0.0,0.0,37,0.00,CLR,,0.00,WeatherDisplay:10.37,2013-07-22 14:40:00,
2013-07-22 10:42:00,77.0,48.7,29.75,East,90,0.0,0.0,37,0.00,CLR,,0.00,WeatherDisplay:10.37,2013-07-22 14:42:00,
2013-07-22 10:43:00,77.0,48.7,29.75,East,90,0.0,0.0,37,0.00,CLR,,0.00,WeatherDisplay:10.37,2013-07-22 14:43:00,
2013-07-22 10:44:00,77.2,48.9,29.75,East,90,0.9,0.0,37,0.00,CLR,,0.00,WeatherDisplay:10.37,2013-07-22 14:44:00,
2013-07-22 10:45:00,77.2,48.2,29.75,SSE,158,2.3,0.0,36,0.00,CLR,,0.00,WeatherDisplay:10.37,2013-07-22 14:45:00,
2013-07-22 10:47:00,77.5,48.5,29.75,ESE,112,3.8,3.8,36,0.00,CLR,,0.00,WeatherDisplay:10.37,2013-07-22 14:47:00,
2013-07-22 10:48:00,77.5,48.5,29.75,ESE,112,3.5,3.5,36,0.00,CLR,,0.00,WeatherDisplay:10.37,2013-07-22 14:48:00,
2013-07-22 10:49:00,77.4,47.6,29.75,ESE,112,3.5,3.5,35,0.00,CLR,,0.00,WeatherDisplay:10.37,2013-07-22 14:49:00,
2013-07-22 10:50:00,77.7,48.6,29.75,SSE,158,1.2,0.0,36,0.00,CLR,,0.00,WeatherDisplay:10.37,2013-07-22 14:50:00,
2013-07-22 10:51:00,77.9,48.8,29.75,North,0,1.4,0.0,36,0.00,CLR,,0.00,WeatherDisplay:10.37,2013-07-22 14:51:00,
2013-07-22 10:53:00,78.1,48.2,29.75,East,90,0.0,0.0,35,0.00,CLR,,0.00,WeatherDisplay:10.37,2013-07-22 14:53:00,
2013-07-22 10:54:00,78.4,48.5,29.75,East,90,0.0,0.0,35,0.00,CLR,,0.00,WeatherDisplay:10.37,2013-07-22 14:54:00,
2013-07-22 10:55:00,79.0,49.7,29.75,East,90,0.0,0.0,36,0.00,CLR,,0.00,WeatherDisplay:10.37,2013-07-22 14:55:00,
2013-07-22 10:56:00,79.2,49.9,29.75,NW,315,2.9,0.0,36,0.00,CLR,,0.00,WeatherDisplay:10.37,2013-07-22 14:56:00,
2013-07-22 10:58:00,79.2,47.6,29.75,SE,135,2.3,2.3,33,0.00,CLR,,0.00,WeatherDisplay:10.37,2013-07-22 14:58:00,
2013-07-22 10:59:00,79.2,48.4,29.75,South,180,2.0,0.0,34,0.00,CLR,,0.00,WeatherDisplay:10.37,2013-07-22 14:59:00,
2013-07-22 11:01:00,79.0,47.4,29.75,SE,135,1.2,0.0,33,0.00,CLR,,0.00,WeatherDisplay:10.37,2013-07-22 15:01:00,
2013-07-22 11:03:00,79.5,47.1,29.75,NNW,338,0.0,0.0,32,0.00,CLR,,0.00,WeatherDisplay:10.37,2013-07-22 15:03:00,
2013-07-22 11:04:00,79.7,47.2,29.75,ESE,112,0.0,0.0,32,0.00,CLR,,0.00,WeatherDisplay:10.37,2013-07-22 15:04:00,
2013-07-22 11:06:00,79.5,47.9,29.72,SSE,158,1.2,0.0,33,0.00,CLR,,0.00,WeatherDisplay:10.37,2013-07-22 15:06:00,
2013-07-22 11:08:00,79.3,46.9,29.72,ESE,112,3.8,3.8,32,0.00,CLR,,0.00,WeatherDisplay:10.37,2013-07-22 15:08:00,
2013-07-22 11:09:00,79.3,46.9,29.72,ESE,112,5.8,5.8,32,0.00,CLR,,0.00,WeatherDisplay:10.37,2013-07-22 15:09:00,
2013-07-22 11:11:00,79.2,47.6,29.72,ESE,112,1.2,1.2,33,0.00,CLR,,0.00,WeatherDisplay:10.37,2013-07-22 15:11:00,
2013-07-22 11:12:00,79.2,47.6,29.72,NNW,338,1.2,1.2,33,0.00,CLR,,0.00,WeatherDisplay:10.37,2013-07-22 15:12:00,
2013-07-22 11:13:00,79.5,47.9,29.72,ESE,112,3.6,3.6,33,0.00,CLR,,0.00,WeatherDisplay:10.37,2013-07-22 15:13:00,
2013-07-22 11:14:00,79.7,48.0,29.72,ESE,112,3.5,3.5,33,0.00,CLR,,0.00,WeatherDisplay:10.37,2013-07-22 15:14:00,
2013-07-22 11:15:00,79.7,48.0,29.72,ESE,112,3.5,3.5,33,0.00,CLR,,0.00,WeatherDisplay:10.37,2013-07-22 15:15:00,
2013-07-22 11:16:00,80.1,47.5,29.72,SE,135,3.8,0.0,32,0.00,CLR,,0.00,WeatherDisplay:10.37,2013-07-22 15:16:00,
2013-07-22 11:17:00,80.1,47.5,29.72,ESE,112,3.5,0.0,32,0.00,CLR,,0.00,WeatherDisplay:10.37,2013-07-22 15:17:00,
2013-07-22 11:21:00,80.6,48.8,29.75,ESE,112,1.2,0.0,33,0.00,CLR,,0.00,WeatherDisplay:10.37,2013-07-22 15:21:00,
2013-07-22 11:27:00,81.7,48.9,29.75,ENE,68,0.0,0.0,32,0.00,CLR,,0.00,WeatherDisplay:10.37,2013-07-22 15:27:00,
2013-07-22 11:28:00,81.7,48.9,29.75,ESE,112,0.0,0.0,32,0.00,CLR,,0.00,WeatherDisplay:10.37,2013-07-22 15:28:00,
2013-07-22 11:32:00,82.4,48.7,29.75,SE,135,0.0,0.0,31,0.00,CLR,,0.00,WeatherDisplay:10.37,2013-07-22 15:32:00,
2013-07-22 11:33:00,82.4,48.7,29.75,ESE,112,0.0,0.0,31,0.00,CLR,,0.00,WeatherDisplay:10.37,2013-07-22 15:33:00,
2013-07-22 11:37:00,83.3,49.5,29.75,SE,135,0.0,0.0,31,0.00,CLR,,0.00,WeatherDisplay:10.37,2013-07-22 15:37:00,
2013-07-22 11:38:00,83.3,49.5,29.75,SE,135,0.0,0.0,31,0.00,CLR,,0.00,WeatherDisplay:10.37,2013-07-22 15:38:00,
2013-07-22 11:42:00,84.2,48.5,29.75,ESE,112,0.0,0.0,29,0.00,CLR,,0.00,WeatherDisplay:10.37,2013-07-22 15:42:00,
2013-07-22 11:43:00,84.6,49.7,29.75,ESE,112,0.0,0.0,30,0.00,CLR,,0.00,WeatherDisplay:10.37,2013-07-22 15:43:00,
2013-07-22 11:48:00,85.1,49.3,29.75,ESE,112,4.6,4.6,29,0.00,CLR,,0.00,WeatherDisplay:10.37,2013-07-22 15:48:00,
2013-07-22 11:49:00,83.8,48.2,29.75,SE,135,8.1,8.1,29,0.00,CLR,,0.00,WeatherDisplay:10.37,2013-07-22 15:49:00,
2013-07-22 11:53:00,83.1,47.6,29.72,ESE,112,0.0,0.0,29,0.00,CLR,,0.00,WeatherDisplay:10.37,2013-07-22 15:53:00,
2013-07-22 11:54:00,83.3,47.7,29.72,SE,135,0.0,0.0,29,0.00,CLR,,0.00,WeatherDisplay:10.37,2013-07-22 15:54:00,
2013-07-22 11:58:00,84.2,48.5,29.72,ESE,112,1.2,1.2,29,0.00,CLR,,0.00,WeatherDisplay:10.37,2013-07-22 15:58:00,
2013-07-22 11:59:00,84.2,48.5,29.72,East,90,2.3,2.3,29,0.00,CLR,,0.00,WeatherDisplay:10.37,2013-07-22 15:59:00,
2013-07-22 12:00:00,84.4,48.6,29.72,ESE,112,1.2,1.4,29,0.00,CLR,,0.00,WeatherDisplay:10.37,2013-07-22 16:00:00,
2013-07-22 12:03:00,84.0,49.2,29.72,ESE,112,4.6,4.6,30,0.00,CLR,,0.00,WeatherDisplay:10.37,2013-07-22 16:03:00,
2013-07-22 12:04:00,84.0,49.2,29.72,ESE,112,2.3,2.3,30,0.00,CLR,,0.00,WeatherDisplay:10.37,2013-07-22 16:04:00,
2013-07-22 12:05:00,84.4,49.6,29.72,SE,135,1.2,1.2,30,0.00,CLR,,0.00,WeatherDisplay:10.37,2013-07-22 16:05:00,
2013-07-22 12:08:00,84.6,48.8,29.75,ESE,112,4.6,4.6,29,0.00,CLR,,0.00,WeatherDisplay:10.37,2013-07-22 16:08:00,
2013-07-22 12:09:00,84.6,48.8,29.75,ESE,112,3.5,3.5,29,0.00,CLR,,0.00,WeatherDisplay:10.37,2013-07-22 16:09:00,
2013-07-22 12:10:00,84.4,48.6,29.75,ESE,112,3.5,3.5,29,0.00,CLR,,0.00,WeatherDisplay:10.37,2013-07-22 16:10:00,
2013-07-22 12:14:00,85.1,49.3,29.75,ESE,112,1.2,0.0,29,0.00,CLR,,0.00,WeatherDisplay:10.37,2013-07-22 16:14:00,
2013-07-22 12:15:00,84.7,49.0,29.75,SE,135,4.6,4.6,29,0.00,CLR,,0.00,WeatherDisplay:10.37,2013-07-22 16:15:00,
2013-07-22 12:19:00,85.8,49.9,29.75,East,90,3.5,3.5,29,0.00,CLR,,0.00,WeatherDisplay:10.37,2013-07-22 16:19:00,
2013-07-22 12:20:00,85.1,49.3,29.75,East,90,4.6,4.6,29,0.00,CLR,,0.00,WeatherDisplay:10.37,2013-07-22 16:20:00,
2013-07-22 12:24:00,84.9,50.9,29.75,ENE,68,2.3,2.3,31,0.00,CLR,,0.00,WeatherDisplay:10.37,2013-07-22 16:24:00,
2013-07-22 12:25:00,85.5,50.5,29.75,ENE,68,3.5,3.5,30,0.00,CLR,,0.00,WeatherDisplay:10.37,2013-07-22 16:25:00,
2013-07-22 12:29:00,84.7,50.8,29.75,East,90,3.5,3.5,31,0.00,CLR,,0.00,WeatherDisplay:10.37,2013-07-22 16:29:00,
2013-07-22 12:30:00,85.1,51.1,29.75,ESE,112,2.6,2.6,31,0.00,CLR,,0.00,WeatherDisplay:10.37,2013-07-22 16:30:00,
2013-07-22 12:34:00,85.5,51.4,29.75,ESE,112,3.1,0.0,31,0.00,CLR,,0.00,WeatherDisplay:10.37,2013-07-22 16:34:00,
2013-07-22 12:35:00,85.5,52.2,29.75,SE,135,3.5,3.5,32,0.00,CLR,,0.00,WeatherDisplay:10.37,2013-07-22 16:35:00,
2013-07-22 12:39:00,86.0,51.8,29.75,SE,135,1.2,0.0,31,0.00,CLR,,0.00,WeatherDisplay:10.37,2013-07-22 16:39:00,
2013-07-22 12:40:00,86.0,51.8,29.75,SE,135,0.0,0.0,31,0.00,CLR,,0.00,WeatherDisplay:10.37,2013-07-22 16:40:00,
2013-07-22 12:41:00,86.2,52.0,29.75,SE,135,1.2,0.0,31,0.00,CLR,,0.00,WeatherDisplay:10.37,2013-07-22 16:41:00,
2013-07-22 12:45:00,84.9,50.9,29.75,ESE,112,4.6,4.6,31,0.00,CLR,,0.00,WeatherDisplay:10.37,2013-07-22 16:45:00,
2013-07-22 12:46:00,84.9,50.9,29.75,SSE,158,2.3,2.3,31,0.00,CLR,,0.00,WeatherDisplay:10.37,2013-07-22 16:46:00,
2013-07-22 12:50:00,85.6,52.4,29.75,East,90,2.3,2.3,32,0.00,CLR,,0.00,WeatherDisplay:10.37,2013-07-22 16:50:00,
2013-07-22 12:51:00,85.5,52.2,29.72,SSE,158,2.9,2.9,32,0.00,CLR,,0.00,WeatherDisplay:10.37,2013-07-22 16:51:00,
2013-07-22 12:55:00,85.1,51.1,29.72,SE,135,2.3,2.3,31,0.00,CLR,,0.00,WeatherDisplay:10.37,2013-07-22 16:55:00,
2013-07-22 12:56:00,85.3,52.1,29.72,SE,135,4.6,4.6,32,0.00,CLR,,0.00,WeatherDisplay:10.37,2013-07-22 16:56:00,
2013-07-22 13:00:00,84.9,51.8,29.72,ESE,112,3.5,3.5,32,0.00,CLR,,0.00,WeatherDisplay:10.37,2013-07-22 17:00:00,
2013-07-22 13:01:00,84.9,51.8,29.72,ESE,112,6.4,6.4,32,0.00,CLR,,0.00,WeatherDisplay:10.37,2013-07-22 17:01:00,
2013-07-22 13:05:00,84.2,52.0,29.72,East,90,1.2,1.2,33,0.00,CLR,,0.00,WeatherDisplay:10.37,2013-07-22 17:05:00,
2013-07-22 13:06:00,84.9,53.4,29.72,ESE,112,1.2,0.0,34,0.00,CLR,,0.00,WeatherDisplay:10.37,2013-07-22 17:06:00,
2013-07-22 13:10:00,84.2,52.0,29.72,ESE,112,3.5,3.5,33,0.00,CLR,,0.00,WeatherDisplay:10.37,2013-07-22 17:10:00,
2013-07-22 13:11:00,84.6,53.1,29.72,ESE,112,2.0,2.0,34,0.00,CLR,,0.00,WeatherDisplay:10.37,2013-07-22 17:11:00,
2013-07-22 13:12:00,84.6,53.1,29.72,ESE,112,2.3,2.3,34,0.00,CLR,,0.00,WeatherDisplay:10.37,2013-07-22 17:12:00,
2013-07-22 13:16:00,86.5,54.8,29.72,ESE,112,0.0,0.0,34,0.00,CLR,,0.00,WeatherDisplay:10.37,2013-07-22 17:16:00,
2013-07-22 13:17:00,87.3,54.6,29.72,SE,135,0.0,0.0,33,0.00,CLR,,0.00,WeatherDisplay:10.37,2013-07-22 17:17:00,
2013-07-22 13:21:00,87.6,53.2,29.72,SSE,158,2.3,2.3,31,0.00,CLR,,0.00,WeatherDisplay:10.37,2013-07-22 17:21:00,
2013-07-22 13:22:00,87.8,53.4,29.72,North,0,0.0,0.0,31,0.00,CLR,,0.00,WeatherDisplay:10.37,2013-07-22 17:22:00,
2013-07-22 13:26:00,86.9,52.6,29.72,ESE,112,0.0,0.0,31,0.00,CLR,,0.00,WeatherDisplay:10.37,2013-07-22 17:26:00,
2013-07-22 13:27:00,86.7,52.5,29.72,ESE,112,0.0,0.0,31,0.00,CLR,,0.00,WeatherDisplay:10.37,2013-07-22 17:27:00,
2013-07-22 13:28:00,86.7,52.5,29.72,SSE,158,0.0,0.0,31,0.00,CLR,,0.00,WeatherDisplay:10.37,2013-07-22 17:28:00,
2013-07-22 13:32:00,87.3,52.9,29.72,ESE,112,4.6,0.0,31,0.00,CLR,,0.00,WeatherDisplay:10.37,2013-07-22 17:32:00,
2013-07-22 13:33:00,87.1,52.8,29.72,ESE,112,4.6,4.6,31,0.00,CLR,,0.00,WeatherDisplay:10.37,2013-07-22 17:33:00,
2013-07-22 13:37:00,86.7,53.3,29.69,East,90,1.2,0.0,32,0.00,CLR,,0.00,WeatherDisplay:10.37,2013-07-22 17:37:00,
2013-07-22 13:38:00,86.0,52.7,29.69,ESE,112,3.5,3.5,32,0.00,CLR,,0.00,WeatherDisplay:10.37,2013-07-22 17:38:00,
2013-07-22 13:42:00,84.0,51.8,29.69,ESE,112,3.5,3.5,33,0.00,CLR,,0.00,WeatherDisplay:10.37,2013-07-22 17:42:00,
2013-07-22 13:43:00,84.0,51.8,29.69,SE,135,3.5,3.5,33,0.00,CLR,,0.00,WeatherDisplay:10.37,2013-07-22 17:43:00,
2013-07-22 13:44:00,84.0,51.8,29.69,SE,135,1.2,0.0,33,0.00,CLR,,0.00,WeatherDisplay:10.37,2013-07-22 17:44:00,
2013-07-22 13:47:00,83.5,52.9,29.69,SE,135,3.5,3.5,35,0.00,CLR,,0.00,WeatherDisplay:10.37,2013-07-22 17:47:00,
2013-07-22 13:48:00,83.7,53.1,29.69,SE,135,3.5,0.0,35,0.00,CLR,,0.00,WeatherDisplay:10.37,2013-07-22 17:48:00,
2013-07-22 13:49:00,83.7,53.1,29.69,East,90,2.4,0.0,35,0.00,CLR,,0.00,WeatherDisplay:10.37,2013-07-22 17:49:00,
2013-07-22 13:52:00,84.4,54.5,29.69,ESE,112,2.3,2.3,36,0.00,CLR,,0.00,WeatherDisplay:10.37,2013-07-22 17:52:00,
2013-07-22 13:53:00,84.7,54.8,29.69,ESE,112,2.4,2.4,36,0.00,CLR,,0.00,WeatherDisplay:10.37,2013-07-22 17:53:00,
2013-07-22 13:55:00,84.4,54.5,29.69,East,90,4.6,4.6,36,0.00,CLR,,0.00,WeatherDisplay:10.37,2013-07-22 17:55:00,
2013-07-22 13:58:00,84.4,53.7,29.69,ESE,112,3.5,3.5,35,0.00,CLR,,0.00,WeatherDisplay:10.37,2013-07-22 17:58:00,
2013-07-22 14:04:00,83.7,53.9,29.69,East,90,2.3,2.3,36,0.00,CLR,,0.00,WeatherDisplay:10.37,2013-07-22 18:04:00,
2013-07-22 14:09:00,84.0,55.7,29.72,ESE,112,3.5,3.5,38,0.00,CLR,,0.00,WeatherDisplay:10.37,2013-07-22 18:09:00,
2013-07-22 14:12:00,83.1,54.1,29.72,ESE,112,4.6,4.6,37,0.00,CLR,,0.00,WeatherDisplay:10.37,2013-07-22 18:12:00,
2013-07-22 14:14:00,83.1,54.1,29.72,ESE,112,3.5,3.5,37,0.00,CLR,,0.00,WeatherDisplay:10.37,2013-07-22 18:14:00,
2013-07-22 14:17:00,82.6,54.4,29.72,ESE,112,0.0,0.0,38,0.00,CLR,,0.00,WeatherDisplay:10.37,2013-07-22 18:17:00,
2013-07-22 14:19:00,82.8,54.6,29.72,ESE,112,3.5,3.5,38,0.00,CLR,,0.00,WeatherDisplay:10.37,2013-07-22 18:19:00,
2013-07-22 14:20:00,82.8,54.6,29.72,ESE,112,2.3,2.4,38,0.00,CLR,,0.00,WeatherDisplay:10.37,2013-07-22 18:20:00,
2013-07-22 14:22:00,82.8,53.8,29.69,ESE,112,4.6,4.6,37,0.00,CLR,,0.00,WeatherDisplay:10.37,2013-07-22 18:22:00,
2013-07-22 14:26:00,82.9,55.4,29.69,East,90,0.0,0.0,39,0.00,CLR,,0.00,WeatherDisplay:10.37,2013-07-22 18:26:00,
2013-07-22 14:27:00,82.6,53.7,29.69,East,90,4.9,0.0,37,0.00,CLR,,0.00,WeatherDisplay:10.37,2013-07-22 18:27:00,
2013-07-22 14:28:00,82.0,53.9,29.69,ESE,112,4.6,4.6,38,0.00,CLR,,0.00,WeatherDisplay:10.37,2013-07-22 18:28:00,
2013-07-22 14:31:00,82.2,54.8,29.69,ESE,112,0.0,0.0,39,0.00,CLR,,0.00,WeatherDisplay:10.37,2013-07-22 18:31:00,
2013-07-22 14:34:00,82.0,54.6,29.69,North,0,4.6,4.6,39,0.00,CLR,,0.00,WeatherDisplay:10.37,2013-07-22 18:34:00,
2013-07-22 14:38:00,81.7,54.3,29.69,ESE,112,3.8,3.8,39,0.00,CLR,,0.00,WeatherDisplay:10.37,2013-07-22 18:38:00,
2013-07-22 14:40:00,81.7,55.0,29.69,ESE,112,2.9,2.9,40,0.00,CLR,,0.00,WeatherDisplay:10.37,2013-07-22 18:40:00,
2013-07-22 14:41:00,81.7,55.0,29.69,SSE,158,2.3,2.3,40,0.00,CLR,,0.00,WeatherDisplay:10.37,2013-07-22 18:41:00,
2013-07-22 14:44:00,83.1,55.6,29.69,ESE,112,1.2,1.2,39,0.00,CLR,,0.00,WeatherDisplay:10.37,2013-07-22 18:44:00,
2013-07-22 14:46:00,83.3,55.8,29.69,ESE,112,4.6,4.6,39,0.00,CLR,,0.00,WeatherDisplay:10.37,2013-07-22 18:46:00,
2013-07-22 14:47:00,82.8,55.3,29.69,North,0,4.6,4.6,39,0.00,CLR,,0.00,WeatherDisplay:10.37,2013-07-22 18:47:00,
2013-07-22 14:48:00,82.4,54.2,29.69,East,90,4.6,4.6,38,0.00,CLR,,0.00,WeatherDisplay:10.37,2013-07-22 18:48:00,
2013-07-22 14:50:00,81.9,55.2,29.69,ESE,112,3.5,3.5,40,0.00,CLR,,0.00,WeatherDisplay:10.37,2013-07-22 18:50:00,
2013-07-22 14:51:00,81.7,55.0,29.69,ESE,112,2.3,2.3,40,0.00,CLR,,0.00,WeatherDisplay:10.37,2013-07-22 18:51:00,
2013-07-22 14:53:00,81.9,55.2,29.69,ESE,112,1.2,0.0,40,0.00,CLR,,0.00,WeatherDisplay:10.37,2013-07-22 18:53:00,
2013-07-22 14:56:00,81.5,54.8,29.69,ESE,112,3.1,3.1,40,0.00,CLR,,0.00,WeatherDisplay:10.37,2013-07-22 18:56:00,
2013-07-22 14:57:00,81.5,54.8,29.69,East,90,4.6,4.6,40,0.00,CLR,,0.00,WeatherDisplay:10.37,2013-07-22 18:57:00,
2013-07-22 14:58:00,81.1,54.5,29.69,NE,45,5.8,5.8,40,0.00,CLR,,0.00,WeatherDisplay:10.37,2013-07-22 18:58:00,
2013-07-22 14:59:00,81.1,54.5,29.69,ESE,112,3.8,3.8,40,0.00,CLR,,0.00,WeatherDisplay:10.37,2013-07-22 18:59:00,
2013-07-22 15:02:00,81.0,55.0,29.69,ESE,112,3.1,3.1,41,0.00,CLR,,0.00,WeatherDisplay:10.37,2013-07-22 19:02:00,
2013-07-22 15:04:00,81.1,55.2,29.69,East,90,2.3,0.0,41,0.00,CLR,,0.00,WeatherDisplay:10.37,2013-07-22 19:04:00,
2013-07-22 15:05:00,81.5,55.5,29.69,ENE,68,2.3,2.3,41,0.00,CLR,,0.00,WeatherDisplay:10.37,2013-07-22 19:05:00,
2013-07-22 15:08:00,81.1,55.2,29.66,SE,135,2.3,2.3,41,0.00,CLR,,0.00,WeatherDisplay:10.37,2013-07-22 19:08:00,
2013-07-22 15:09:00,81.3,55.4,29.66,ESE,112,2.9,2.9,41,0.00,CLR,,0.00,WeatherDisplay:10.37,2013-07-22 19:09:00,
2013-07-22 15:11:00,81.3,55.4,29.66,SE,135,2.3,2.3,41,0.00,CLR,,0.00,WeatherDisplay:10.37,2013-07-22 19:11:00,
2013-07-22 15:13:00,80.8,54.9,29.66,ESE,112,4.6,4.6,41,0.00,CLR,,0.00,WeatherDisplay:10.37,2013-07-22 19:13:00,
2013-07-22 15:14:00,80.8,54.9,29.66,East,90,3.5,3.5,41,0.00,CLR,,0.00,WeatherDisplay:10.37,2013-07-22 19:14:00,
2013-07-22 15:17:00,81.0,55.0,29.66,East,90,0.0,0.0,41,0.00,CLR,,0.00,WeatherDisplay:10.37,2013-07-22 19:17:00,
2013-07-22 15:18:00,80.6,55.4,29.66,ESE,112,0.0,0.0,42,0.00,CLR,,0.00,WeatherDisplay:10.37,2013-07-22 19:18:00,
2013-07-22 15:19:00,80.6,55.4,29.66,ESE,112,3.6,3.6,42,0.00,CLR,,0.00,WeatherDisplay:10.37,2013-07-22 19:19:00,
2013-07-22 15:23:00,80.6,55.4,29.66,ESE,112,2.9,2.9,42,0.00,CLR,,0.00,WeatherDisplay:10.37,2013-07-22 19:23:00,
2013-07-22 15:24:00,80.2,55.7,29.66,ESE,112,4.6,4.6,43,0.00,CLR,,0.00,WeatherDisplay:10.37,2013-07-22 19:24:00,
2013-07-22 15:28:00,80.1,55.5,29.66,ESE,112,2.9,2.9,43,0.00,CLR,,0.00,WeatherDisplay:10.37,2013-07-22 19:28:00,
2013-07-22 15:29:00,79.9,55.4,29.66,ESE,112,4.6,4.6,43,0.00,CLR,,0.00,WeatherDisplay:10.37,2013-07-22 19:29:00,
2013-07-22 15:30:00,79.9,56.0,29.66,ESE,112,2.3,2.3,44,0.00,CLR,,0.00,WeatherDisplay:10.37,2013-07-22 19:30:00,
2013-07-22 15:34:00,79.5,55.1,29.66,ESE,112,4.5,4.5,43,0.00,CLR,,0.00,WeatherDisplay:10.37,2013-07-22 19:34:00,
2013-07-22 15:35:00,79.3,54.9,29.66,SE,135,4.6,4.6,43,0.00,CLR,,0.00,WeatherDisplay:10.37,2013-07-22 19:35:00,
2013-07-22 15:36:00,79.3,54.9,29.66,ESE,112,4.6,4.6,43,0.00,CLR,,0.00,WeatherDisplay:10.37,2013-07-22 19:36:00,
2013-07-22 15:41:00,79.2,55.4,29.66,ESE,112,3.3,3.3,44,0.00,CLR,,0.00,WeatherDisplay:10.37,2013-07-22 19:41:00,
2013-07-22 15:42:00,79.2,55.4,29.66,ENE,68,3.5,3.5,44,0.00,CLR,,0.00,WeatherDisplay:10.37,2013-07-22 19:42:00,
2013-07-22 15:47:00,79.3,56.2,29.66,ESE,112,2.6,2.6,45,0.00,CLR,,0.00,WeatherDisplay:10.37,2013-07-22 19:47:00,
2013-07-22 15:48:00,79.2,56.0,29.66,SSE,158,2.3,2.6,45,0.00,CLR,,0.00,WeatherDisplay:10.37,2013-07-22 19:48:00,
2013-07-22 15:49:00,79.2,55.4,29.66,ESE,112,2.3,0.0,44,0.00,CLR,,0.00,WeatherDisplay:10.37,2013-07-22 19:49:00,
2013-07-22 15:53:00,79.3,55.5,29.63,East,90,3.5,3.5,44,0.00,CLR,,0.00,WeatherDisplay:10.37,2013-07-22 19:53:00,
2013-07-22 15:54:00,79.3,56.2,29.63,SSE,158,3.5,3.5,45,0.00,CLR,,0.00,WeatherDisplay:10.37,2013-07-22 19:54:00,
2013-07-22 15:58:00,79.9,56.0,29.63,SE,135,2.9,2.9,44,0.00,CLR,,0.00,WeatherDisplay:10.37,2013-07-22 19:58:00,
2013-07-22 15:59:00,79.9,56.0,29.63,East,90,4.6,4.6,44,0.00,CLR,,0.00,WeatherDisplay:10.37,2013-07-22 19:59:00,
2013-07-22 16:00:00,79.7,55.9,29.63,ESE,112,2.3,2.3,44,0.00,CLR,,0.00,WeatherDisplay:10.37,2013-07-22 20:00:00,
2013-07-22 16:03:00,79.7,55.9,29.63,East,90,4.3,4.3,44,0.00,CLR,,0.00,WeatherDisplay:10.37,2013-07-22 20:03:00,
2013-07-22 16:04:00,79.7,55.9,29.63,East,90,4.6,4.6,44,0.00,CLR,,0.00,WeatherDisplay:10.37,2013-07-22 20:04:00,
2013-07-22 16:05:00,79.3,55.5,29.63,ESE,112,4.6,4.6,44,0.00,CLR,,0.00,WeatherDisplay:10.37,2013-07-22 20:05:00,
2013-07-22 16:09:00,80.1,56.2,29.63,ESE,112,3.5,3.5,44,0.00,CLR,,0.00,WeatherDisplay:10.37,2013-07-22 20:09:00,
2013-07-22 16:11:00,80.6,56.0,29.63,East,90,3.5,3.5,43,0.00,CLR,,0.00,WeatherDisplay:10.37,2013-07-22 20:11:00,
2013-07-22 16:16:00,81.0,56.4,29.63,SE,135,0.0,0.9,43,0.00,CLR,,0.00,WeatherDisplay:10.37,2013-07-22 20:16:00,
2013-07-22 16:17:00,81.0,56.4,29.63,East,90,1.6,1.6,43,0.00,CLR,,0.00,WeatherDisplay:10.37,2013-07-22 20:17:00,
2013-07-22 16:22:00,80.4,55.2,29.63,ESE,112,3.5,3.5,42,0.00,CLR,,0.00,WeatherDisplay:10.37,2013-07-22 20:22:00,
2013-07-22 16:23:00,80.2,55.1,29.63,ESE,112,4.6,4.6,42,0.00,CLR,,0.00,WeatherDisplay:10.37,2013-07-22 20:23:00,
2013-07-22 16:27:00,79.5,54.4,29.63,East,90,6.9,6.9,42,0.00,CLR,,0.00,WeatherDisplay:10.37,2013-07-22 20:27:00,
2013-07-22 16:28:00,79.5,54.4,29.63,East,90,4.6,4.6,42,0.00,CLR,,0.00,WeatherDisplay:10.37,2013-07-22 20:28:00,
2013-07-22 16:32:00,80.1,54.9,29.63,East,90,2.4,2.4,42,0.00,CLR,,0.00,WeatherDisplay:10.37,2013-07-22 20:32:00,
2013-07-22 16:33:00,80.1,54.9,29.63,East,90,2.4,2.4,42,0.00,CLR,,0.00,WeatherDisplay:10.37,2013-07-22 20:33:00,
2013-07-22 16:34:00,80.2,55.1,29.63,ESE,112,3.6,3.6,42,0.00,CLR,,0.00,WeatherDisplay:10.37,2013-07-22 20:34:00,
2013-07-22 16:38:00,79.9,54.7,29.60,East,90,3.5,3.5,42,0.00,CLR,,0.00,WeatherDisplay:10.37,2013-07-22 20:38:00,
2013-07-22 16:39:00,80.1,54.9,29.60,ESE,112,2.4,2.4,42,0.00,CLR,,0.00,WeatherDisplay:10.37,2013-07-22 20:39:00,
2013-07-22 16:43:00,79.9,54.7,29.60,SE,135,3.5,3.5,42,0.00,CLR,,0.00,WeatherDisplay:10.37,2013-07-22 20:43:00,
2013-07-22 16:44:00,79.9,55.4,29.60,ESE,112,0.0,0.0,43,0.00,CLR,,0.00,WeatherDisplay:10.37,2013-07-22 20:44:00,
2013-07-22 16:45:00,79.5,54.4,29.60,ENE,68,0.0,0.0,42,0.00,CLR,,0.00,WeatherDisplay:10.37,2013-07-22 20:45:00,
2013-07-22 16:48:00,78.8,53.8,29.60,SE,135,5.8,5.8,42,0.00,CLR,,0.00,WeatherDisplay:10.37,2013-07-22 20:48:00,
2013-07-22 16:49:00,78.8,53.8,29.60,ESE,112,1.2,0.0,42,0.00,CLR,,0.00,WeatherDisplay:10.37,2013-07-22 20:49:00,
2013-07-22 16:50:00,79.2,54.7,29.63,East,90,0.0,0.0,43,0.00,CLR,,0.00,WeatherDisplay:10.37,2013-07-22 20:50:00,
2013-07-22 16:53:00,79.0,54.6,29.63,ESE,112,4.6,4.6,43,0.00,CLR,,0.00,WeatherDisplay:10.37,2013-07-22 20:53:00,
2013-07-22 16:54:00,78.8,54.4,29.63,ESE,112,4.6,4.6,43,0.00,CLR,,0.00,WeatherDisplay:10.37,2013-07-22 20:54:00,
2013-07-22 16:55:00,78.4,54.7,29.63,ESE,112,3.5,3.5,44,0.00,CLR,,0.00,WeatherDisplay:10.37,2013-07-22 20:55:00,
2013-07-22 16:58:00,78.4,54.7,29.63,SSE,158,4.6,4.6,44,0.00,CLR,,0.00,WeatherDisplay:10.37,2013-07-22 20:58:00,
2013-07-22 16:59:00,78.4,54.7,29.63,SE,135,1.2,1.2,44,0.00,CLR,,0.00,WeatherDisplay:10.37,2013-07-22 20:59:00,
2013-07-22 17:00:00,78.3,54.6,29.63,SE,135,2.4,0.0,44,0.00,CLR,,0.00,WeatherDisplay:10.37,2013-07-22 21:00:00,
2013-07-22 17:03:00,77.7,54.1,29.63,ESE,112,3.5,3.8,44,0.00,CLR,,0.00,WeatherDisplay:10.37,2013-07-22 21:03:00,
2013-07-22 17:04:00,77.5,53.9,29.63,ESE,112,5.8,5.8,44,0.00,CLR,,0.00,WeatherDisplay:10.37,2013-07-22 21:04:00,
2013-07-22 17:05:00,77.5,53.9,29.63,ESE,112,5.8,5.8,44,0.00,CLR,,0.00,WeatherDisplay:10.37,2013-07-22 21:05:00,
2013-07-22 17:08:00,77.2,54.2,29.60,East,90,4.6,4.6,45,0.00,CLR,,0.00,WeatherDisplay:10.37,2013-07-22 21:08:00,
2013-07-22 17:09:00,77.2,54.8,29.60,ESE,112,5.8,5.8,46,0.00,CLR,,0.00,WeatherDisplay:10.37,2013-07-22 21:09:00,
2013-07-22 17:10:00,77.2,54.8,29.60,ESE,112,2.3,0.0,46,0.00,CLR,,0.00,WeatherDisplay:10.37,2013-07-22 21:10:00,
2013-07-22 17:11:00,77.2,54.8,29.60,East,90,1.2,0.0,46,0.00,CLR,,0.00,WeatherDisplay:10.37,2013-07-22 21:11:00,
2013-07-22 17:14:00,77.4,55.0,29.60,East,90,0.0,0.0,46,0.00,CLR,,0.00,WeatherDisplay:10.37,2013-07-22 21:14:00,
2013-07-22 17:15:00,77.4,55.0,29.60,East,90,0.0,0.0,46,0.00,CLR,,0.00,WeatherDisplay:10.37,2013-07-22 21:15:00,
2013-07-22 17:16:00,77.5,55.1,29.60,East,90,0.0,0.0,46,0.00,CLR,,0.00,WeatherDisplay:10.37,2013-07-22 21:16:00,
2013-07-22 17:19:00,77.4,55.0,29.60,East,90,4.6,4.6,46,0.00,CLR,,0.00,WeatherDisplay:10.37,2013-07-22 21:19:00,
2013-07-22 17:20:00,77.4,55.0,29.60,East,90,0.0,0.0,46,0.00,CLR,,0.00,WeatherDisplay:10.37,2013-07-22 21:20:00,
2013-07-22 17:21:00,77.2,54.8,29.63,East,90,0.0,0.0,46,0.00,CLR,,0.00,WeatherDisplay:10.37,2013-07-22 21:21:00,
2013-07-22 17:24:00,77.2,54.8,29.63,East,90,0.0,0.0,46,0.00,CLR,,0.00,WeatherDisplay:10.37,2013-07-22 21:24:00,
2013-07-22 17:25:00,77.4,56.1,29.63,East,90,0.0,0.0,48,0.00,CLR,,0.00,WeatherDisplay:10.37,2013-07-22 21:25:00,
2013-07-22 17:26:00,77.4,55.6,29.63,East,90,0.0,0.0,47,0.00,CLR,,0.00,WeatherDisplay:10.37,2013-07-22 21:26:00,
2013-07-22 17:29:00,77.4,55.0,29.63,SSE,158,1.4,0.0,46,0.00,CLR,,0.00,WeatherDisplay:10.37,2013-07-22 21:29:00,
2013-07-22 17:31:00,77.2,54.8,29.63,SSE,158,1.2,0.0,46,0.00,CLR,,0.00,WeatherDisplay:10.37,2013-07-22 21:31:00,
2013-07-22 17:34:00,77.2,55.4,29.63,ESE,112,1.2,0.0,47,0.00,CLR,,0.00,WeatherDisplay:10.37,2013-07-22 21:34:00,
2013-07-22 17:36:00,77.2,55.4,29.63,ESE,112,2.3,2.3,47,0.00,CLR,,0.00,WeatherDisplay:10.37,2013-07-22 21:36:00,
2013-07-22 17:37:00,77.2,55.4,29.63,ESE,112,1.2,1.2,47,0.00,CLR,,0.00,WeatherDisplay:10.37,2013-07-22 21:37:00,
2013-07-22 17:39:00,77.2,55.4,29.63,ESE,112,2.3,2.3,47,0.00,CLR,,0.00,WeatherDisplay:10.37,2013-07-22 21:39:00,
2013-07-22 17:41:00,77.2,56.0,29.63,ENE,68,0.0,0.0,48,0.00,CLR,,0.00,WeatherDisplay:10.37,2013-07-22 21:41:00,
2013-07-22 17:42:00,77.2,56.0,29.63,ENE,68,0.0,0.0,48,0.00,CLR,,0.00,WeatherDisplay:10.37,2013-07-22 21:42:00,
2013-07-22 17:43:00,77.4,55.6,29.63,ENE,68,0.0,0.0,47,0.00,CLR,,0.00,WeatherDisplay:10.37,2013-07-22 21:43:00,
2013-07-22 17:45:00,77.5,56.3,29.63,East,90,0.0,0.0,48,0.00,CLR,,0.00,WeatherDisplay:10.37,2013-07-22 21:45:00,
2013-07-22 17:47:00,77.5,55.7,29.63,East,90,2.3,0.0,47,0.00,CLR,,0.00,WeatherDisplay:10.37,2013-07-22 21:47:00,
2013-07-22 17:48:00,77.5,56.3,29.63,East,90,1.2,0.0,48,0.00,CLR,,0.00,WeatherDisplay:10.37,2013-07-22 21:48:00,
2013-07-22 17:50:00,77.5,55.7,29.63,NE,45,2.3,0.0,47,0.00,CLR,,0.00,WeatherDisplay:10.37,2013-07-22 21:50:00,
2013-07-22 17:52:00,77.7,56.5,29.63,East,90,1.4,1.4,48,0.00,CLR,,0.00,WeatherDisplay:10.37,2013-07-22 21:52:00,
2013-07-22 17:53:00,77.5,56.3,29.63,East,90,1.2,1.2,48,0.00,CLR,,0.00,WeatherDisplay:10.37,2013-07-22 21:53:00,
2013-07-22 17:55:00,77.5,55.7,29.63,East,90,2.3,0.0,47,0.00,CLR,,0.00,WeatherDisplay:10.37,2013-07-22 21:55:00,
2013-07-22 17:57:00,77.4,56.1,29.63,East,90,0.0,0.0,48,0.00,CLR,,0.00,WeatherDisplay:10.37,2013-07-22 21:57:00,
2013-07-22 17:58:00,77.4,56.1,29.63,East,90,0.0,0.0,48,0.00,CLR,,0.00,WeatherDisplay:10.37,2013-07-22 21:58:00,
2013-07-22 18:00:00,77.2,56.0,29.63,East,90,0.0,0.0,48,0.00,CLR,,0.00,WeatherDisplay:10.37,2013-07-22 22:00:00,
2013-07-22 18:02:00,77.0,55.2,29.63,East,90,0.0,0.0,47,0.00,CLR,,0.00,WeatherDisplay:10.37,2013-07-22 22:02:00,
2013-07-22 18:03:00,77.0,55.2,29.63,East,90,0.0,0.0,47,0.00,CLR,,0.00,WeatherDisplay:10.37,2013-07-22 22:03:00,
2013-07-22 18:04:00,77.0,55.2,29.63,East,90,0.0,0.0,47,0.00,CLR,,0.00,WeatherDisplay:10.37,2013-07-22 22:04:00,
2013-07-22 18:05:00,77.0,55.2,29.63,East,90,0.0,0.0,47,0.00,CLR,,0.00,WeatherDisplay:10.37,2013-07-22 22:05:00,
2013-07-22 18:08:00,76.8,55.1,29.63,East,90,2.3,0.0,47,0.00,CLR,,0.00,WeatherDisplay:10.37,2013-07-22 22:08:00,
2013-07-22 18:09:00,77.0,55.2,29.63,East,90,2.2,0.0,47,0.00,CLR,,0.00,WeatherDisplay:10.37,2013-07-22 22:09:00,
2013-07-22 18:10:00,76.8,55.1,29.63,East,90,2.3,0.0,47,0.00,CLR,,0.00,WeatherDisplay:10.37,2013-07-22 22:10:00,
2013-07-22 18:13:00,76.8,55.1,29.63,ESE,112,2.0,0.0,47,0.00,CLR,,0.00,WeatherDisplay:10.37,2013-07-22 22:13:00,
2013-07-22 18:14:00,76.8,55.1,29.63,ESE,112,2.3,0.0,47,0.00,CLR,,0.00,WeatherDisplay:10.37,2013-07-22 22:14:00,
2013-07-22 18:16:00,76.8,55.1,29.63,SE,135,1.2,0.0,47,0.00,CLR,,0.00,WeatherDisplay:10.37,2013-07-22 22:16:00,
2013-07-22 18:18:00,76.8,55.6,29.63,East,90,3.8,0.0,48,0.00,CLR,,0.00,WeatherDisplay:10.37,2013-07-22 22:18:00,
2013-07-22 18:19:00,76.6,54.9,29.63,East,90,3.5,0.0,47,0.00,CLR,,0.00,WeatherDisplay:10.37,2013-07-22 22:19:00,
2013-07-22 18:21:00,76.6,55.5,29.63,East,90,0.0,0.0,48,0.00,CLR,,0.00,WeatherDisplay:10.37,2013-07-22 22:21:00,
2013-07-22 18:23:00,76.6,54.9,29.63,East,90,0.0,0.0,47,0.00,CLR,,0.00,WeatherDisplay:10.37,2013-07-22 22:23:00,
2013-07-22 18:24:00,76.6,54.9,29.63,ESE,112,1.2,0.0,47,0.00,CLR,,0.00,WeatherDisplay:10.37,2013-07-22 22:24:00,
2013-07-22 18:26:00,76.5,54.7,29.63,ESE,112,3.5,0.0,47,0.00,CLR,,0.00,WeatherDisplay:10.37,2013-07-22 22:26:00,
2013-07-22 18:28:00,76.1,55.0,29.63,East,90,3.5,3.5,48,0.00,CLR,,0.00,WeatherDisplay:10.37,2013-07-22 22:28:00,
2013-07-22 18:29:00,76.1,55.0,29.63,ESE,112,4.7,0.0,48,0.00,CLR,,0.00,WeatherDisplay:10.37,2013-07-22 22:29:00,
2013-07-22 18:30:00,75.9,54.8,29.63,ESE,112,4.6,4.6,48,0.00,CLR,,0.00,WeatherDisplay:10.37,2013-07-22 22:30:00,
2013-07-22 18:31:00,75.7,54.7,29.63,ESE,112,3.5,3.5,48,0.00,CLR,,0.00,WeatherDisplay:10.37,2013-07-22 22:31:00,
2013-07-22 18:33:00,75.4,54.3,29.63,East,90,3.8,3.8,48,0.00,CLR,,0.00,WeatherDisplay:10.37,2013-07-22 22:33:00,
2013-07-22 18:34:00,75.2,54.7,29.63,ESE,112,3.5,3.5,49,0.00,CLR,,0.00,WeatherDisplay:10.37,2013-07-22 22:34:00,
2013-07-22 18:35:00,75.2,54.7,29.63,ESE,112,2.3,2.3,49,0.00,CLR,,0.00,WeatherDisplay:10.37,2013-07-22 22:35:00,
2013-07-22 18:36:00,75.2,54.7,29.63,ESE,112,2.3,0.0,49,0.00,CLR,,0.00,WeatherDisplay:10.37,2013-07-22 22:36:00,
2013-07-22 18:38:00,75.0,55.1,29.63,East,90,1.2,0.0,50,0.00,CLR,,0.00,WeatherDisplay:10.37,2013-07-22 22:38:00,
2013-07-22 18:39:00,75.0,55.1,29.63,ESE,112,1.2,1.6,50,0.00,CLR,,0.00,WeatherDisplay:10.37,2013-07-22 22:39:00,
2013-07-22 18:40:00,75.0,55.1,29.63,ESE,112,2.3,0.0,50,0.00,CLR,,0.00,WeatherDisplay:10.37,2013-07-22 22:40:00,
2013-07-22 18:41:00,75.0,55.1,29.63,ESE,112,0.0,0.0,50,0.00,CLR,,0.00,WeatherDisplay:10.37,2013-07-22 22:41:00,
2013-07-22 18:43:00,75.0,55.1,29.63,SE,135,1.2,0.0,50,0.00,CLR,,0.00,WeatherDisplay:10.37,2013-07-22 22:43:00,
2013-07-22 18:45:00,74.8,54.9,29.63,ESE,112,0.0,0.0,50,0.00,CLR,,0.00,WeatherDisplay:10.37,2013-07-22 22:45:00,
2013-07-22 18:46:00,74.8,54.9,29.63,ESE,112,0.0,0.0,50,0.00,CLR,,0.00,WeatherDisplay:10.37,2013-07-22 22:46:00,
2013-07-22 18:49:00,74.7,54.8,29.63,ESE,112,0.0,0.0,50,0.00,CLR,,0.00,WeatherDisplay:10.37,2013-07-22 22:49:00,
2013-07-22 18:50:00,74.7,55.3,29.63,ESE,112,0.0,0.0,51,0.00,CLR,,0.00,WeatherDisplay:10.37,2013-07-22 22:50:00,
2013-07-22 18:51:00,74.5,55.2,29.63,ESE,112,3.8,0.0,51,0.00,CLR,,0.00,WeatherDisplay:10.37,2013-07-22 22:51:00,
2013-07-22 18:54:00,74.3,55.0,29.63,East,90,3.5,3.5,51,0.00,CLR,,0.00,WeatherDisplay:10.37,2013-07-22 22:54:00,
2013-07-22 18:55:00,74.3,55.5,29.63,ESE,112,3.5,3.5,52,0.00,CLR,,0.00,WeatherDisplay:10.37,2013-07-22 22:55:00,
2013-07-22 18:56:00,74.3,55.5,29.63,East,90,2.3,2.3,52,0.00,CLR,,0.00,WeatherDisplay:10.37,2013-07-22 22:56:00,
2013-07-22 18:57:00,74.3,55.5,29.63,ESE,112,1.6,1.6,52,0.00,CLR,,0.00,WeatherDisplay:10.37,2013-07-22 22:57:00,
2013-07-22 18:59:00,74.1,54.8,29.63,ESE,112,2.2,0.0,51,0.00,CLR,,0.00,WeatherDisplay:10.37,2013-07-22 22:59:00,
2013-07-22 19:01:00,74.1,55.4,29.63,ESE,112,4.6,4.6,52,0.00,CLR,,0.00,WeatherDisplay:10.37,2013-07-22 23:01:00,
2013-07-22 19:02:00,74.1,54.8,29.63,ESE,112,2.3,0.0,51,0.00,CLR,,0.00,WeatherDisplay:10.37,2013-07-22 23:02:00,
2013-07-22 19:04:00,74.1,55.4,29.63,ESE,112,1.4,1.4,52,0.00,CLR,,0.00,WeatherDisplay:10.37,2013-07-22 23:04:00,
2013-07-22 19:06:00,73.9,54.7,29.63,East,90,1.2,1.2,51,0.00,CLR,,0.00,WeatherDisplay:10.37,2013-07-22 23:06:00,
2013-07-22 19:07:00,73.9,55.2,29.63,East,90,1.2,1.2,52,0.00,CLR,,0.00,WeatherDisplay:10.37,2013-07-22 23:07:00,
2013-07-22 19:09:00,73.9,55.2,29.63,East,90,0.0,0.0,52,0.00,CLR,,0.00,WeatherDisplay:10.37,2013-07-22 23:09:00,
2013-07-22 19:11:00,73.9,55.7,29.63,East,90,0.0,0.0,53,0.00,CLR,,0.00,WeatherDisplay:10.37,2013-07-22 23:11:00,
2013-07-22 19:12:00,73.8,55.6,29.63,ESE,112,1.2,0.0,53,0.00,CLR,,0.00,WeatherDisplay:10.37,2013-07-22 23:12:00,
2013-07-22 19:14:00,73.8,55.0,29.63,ESE,112,4.6,4.6,52,0.00,CLR,,0.00,WeatherDisplay:10.37,2013-07-22 23:14:00,
2013-07-22 19:16:00,73.6,54.9,29.63,SE,135,1.2,0.0,52,0.00,CLR,,0.00,WeatherDisplay:10.37,2013-07-22 23:16:00,
2013-07-22 19:17:00,73.6,54.9,29.63,SE,135,1.2,0.0,52,0.00,CLR,,0.00,WeatherDisplay:10.37,2013-07-22 23:17:00,
2013-07-22 19:20:00,73.6,54.9,29.63,ESE,112,2.0,2.0,52,0.00,CLR,,0.00,WeatherDisplay:10.37,2013-07-22 23:20:00,
2013-07-22 19:22:00,73.6,55.4,29.63,ESE,112,1.2,0.0,53,0.00,CLR,,0.00,WeatherDisplay:10.37,2013-07-22 23:22:00,
2013-07-22 19:25:00,73.4,54.7,29.63,ESE,112,0.0,0.0,52,0.00,CLR,,0.00,WeatherDisplay:10.37,2013-07-22 23:25:00,
2013-07-22 19:27:00,73.4,54.7,29.63,ESE,112,0.0,0.0,52,0.00,CLR,,0.00,WeatherDisplay:10.37,2013-07-22 23:27:00,
2013-07-22 19:28:00,73.4,54.7,29.63,ESE,112,0.0,0.0,52,0.00,CLR,,0.00,WeatherDisplay:10.37,2013-07-22 23:28:00,
2013-07-22 19:30:00,73.4,54.7,29.63,ESE,112,0.0,0.0,52,0.00,CLR,,0.00,WeatherDisplay:10.37,2013-07-22 23:30:00,
2013-07-22 19:32:00,73.2,55.1,29.63,ESE,112,0.0,0.0,53,0.00,CLR,,0.00,WeatherDisplay:10.37,2013-07-22 23:32:00,
2013-07-22 19:33:00,73.2,55.1,29.63,ESE,112,1.4,0.0,53,0.00,CLR,,0.00,WeatherDisplay:10.37,2013-07-22 23:33:00,
2013-07-22 19:37:00,73.2,55.1,29.63,ESE,112,3.6,0.0,53,0.00,CLR,,0.00,WeatherDisplay:10.37,2013-07-22 23:37:00,
2013-07-22 19:38:00,73.2,55.1,29.63,ENE,68,3.5,0.0,53,0.00,CLR,,0.00,WeatherDisplay:10.37,2013-07-22 23:38:00,
2013-07-22 19:42:00,73.0,54.4,29.63,ENE,68,1.2,0.0,52,0.00,CLR,,0.00,WeatherDisplay:10.37,2013-07-22 23:42:00,
2013-07-22 19:43:00,73.0,54.4,29.63,ENE,68,0.0,0.0,52,0.00,CLR,,0.00,WeatherDisplay:10.37,2013-07-22 23:43:00,
2013-07-22 19:47:00,73.0,54.9,29.63,ENE,68,0.0,0.0,53,0.00,CLR,,0.00,WeatherDisplay:10.37,2013-07-22 23:47:00,
2013-07-22 19:48:00,73.0,54.9,29.63,ENE,68,0.0,0.0,53,0.00,CLR,,0.00,WeatherDisplay:10.37,2013-07-22 23:48:00,
2013-07-22 19:49:00,73.0,54.9,29.63,SSE,158,2.3,2.3,53,0.00,CLR,,0.00,WeatherDisplay:10.37,2013-07-22 23:49:00,
2013-07-22 19:52:00,72.9,54.2,29.63,ESE,112,3.5,3.5,52,0.00,CLR,,0.00,WeatherDisplay:10.37,2013-07-22 23:52:00,
2013-07-22 19:53:00,72.9,54.2,29.63,ESE,112,2.3,0.0,52,0.00,CLR,,0.00,WeatherDisplay:10.37,2013-07-22 23:53:00,
2013-07-22 19:54:00,72.9,54.7,29.63,ESE,112,1.2,0.0,53,0.00,CLR,,0.00,WeatherDisplay:10.37,2013-07-22 23:54:00,
2013-07-22 19:58:00,72.9,54.2,29.63,East,90,0.0,0.0,52,0.00,CLR,,0.00,WeatherDisplay:10.37,2013-07-22 23:58:00,
2013-07-22 19:59:00,72.9,54.2,29.63,East,90,0.0,0.0,52,0.00,CLR,,0.00,WeatherDisplay:10.37,2013-07-22 23:59:00,
2013-07-22 20:03:00,72.7,54.6,29.63,ESE,112,0.0,0.0,53,0.00,CLR,,0.00,WeatherDisplay:10.37,2013-07-23 00:03:00,
2013-07-22 20:04:00,72.7,54.6,29.63,ESE,112,0.0,0.0,53,0.00,CLR,,0.00,WeatherDisplay:10.37,2013-07-23 00:04:00,
2013-07-22 20:08:00,72.5,54.4,29.60,East,90,2.3,2.3,53,0.00,CLR,,0.00,WeatherDisplay:10.37,2013-07-23 00:08:00,
2013-07-22 20:09:00,72.5,54.4,29.60,East,90,2.3,0.0,53,0.00,CLR,,0.00,WeatherDisplay:10.37,2013-07-23 00:09:00,
2013-07-22 20:10:00,72.5,54.4,29.60,East,90,2.3,0.0,53,0.00,CLR,,0.00,WeatherDisplay:10.37,2013-07-23 00:10:00,
2013-07-22 20:13:00,72.5,54.4,29.60,East,90,0.0,0.0,53,0.00,CLR,,0.00,WeatherDisplay:10.37,2013-07-23 00:13:00,
2013-07-22 20:14:00,72.5,54.9,29.60,ESE,112,0.0,0.0,54,0.00,CLR,,0.00,WeatherDisplay:10.37,2013-07-23 00:14:00,
2013-07-22 20:15:00,72.5,54.9,29.60,ESE,112,0.0,0.0,54,0.00,CLR,,0.00,WeatherDisplay:10.37,2013-07-23 00:15:00,
2013-07-22 20:18:00,72.5,54.9,29.60,SE,135,1.2,0.0,54,0.00,CLR,,0.00,WeatherDisplay:10.37,2013-07-23 00:18:00,
2013-07-22 20:20:00,72.5,55.4,29.60,SE,135,0.0,0.0,55,0.00,CLR,,0.00,WeatherDisplay:10.37,2013-07-23 00:20:00,
2013-07-22 20:23:00,72.3,54.7,29.63,ESE,112,0.0,0.0,54,0.00,CLR,,0.00,WeatherDisplay:10.37,2013-07-23 00:23:00,
2013-07-22 20:24:00,72.3,54.7,29.63,SSE,158,0.0,0.0,54,0.00,CLR,,0.00,WeatherDisplay:10.37,2013-07-23 00:24:00,
2013-07-22 20:25:00,72.3,55.2,29.63,SSE,158,0.0,0.0,55,0.00,CLR,,0.00,WeatherDisplay:10.37,2013-07-23 00:25:00,
2013-07-22 20:26:00,72.3,55.2,29.63,NW,315,0.0,0.0,55,0.00,CLR,,0.00,WeatherDisplay:10.37,2013-07-23 00:26:00,
2013-07-22 20:28:00,72.3,55.2,29.63,SE,135,0.0,0.0,55,0.00,CLR,,0.00,WeatherDisplay:10.37,2013-07-23 00:28:00,
2013-07-22 20:29:00,72.3,55.2,29.63,SE,135,0.0,0.0,55,0.00,CLR,,0.00,WeatherDisplay:10.37,2013-07-23 00:29:00,
2013-07-22 20:30:00,72.3,55.2,29.63,SE,135,0.0,0.0,55,0.00,CLR,,0.00,WeatherDisplay:10.37,2013-07-23 00:30:00,
2013-07-22 20:31:00,72.3,55.2,29.63,SE,135,1.2,0.0,55,0.00,CLR,,0.00,WeatherDisplay:10.37,2013-07-23 00:31:00,
2013-07-22 20:33:00,72.1,55.6,29.63,SE,135,0.0,0.0,56,0.00,CLR,,0.00,WeatherDisplay:10.37,2013-07-23 00:33:00,
2013-07-22 20:34:00,72.1,55.6,29.63,SE,135,0.0,0.0,56,0.00,CLR,,0.00,WeatherDisplay:10.37,2013-07-23 00:34:00,
2013-07-22 20:35:00,72.1,56.1,29.63,SE,135,0.0,0.0,57,0.00,CLR,,0.00,WeatherDisplay:10.37,2013-07-23 00:35:00,
2013-07-22 20:36:00,72.1,56.5,29.66,SE,135,0.0,0.0,58,0.00,CLR,,0.00,WeatherDisplay:10.37,2013-07-23 00:36:00,
2013-07-22 20:39:00,71.8,56.2,29.66,SE,135,0.0,0.0,58,0.00,CLR,,0.00,WeatherDisplay:10.37,2013-07-23 00:39:00,
2013-07-22 20:40:00,71.8,56.2,29.66,SE,135,0.0,0.0,58,0.00,CLR,,0.00,WeatherDisplay:10.37,2013-07-23 00:40:00,
2013-07-22 20:41:00,71.6,56.0,29.66,SE,135,0.0,0.0,58,0.00,CLR,,0.00,WeatherDisplay:10.37,2013-07-23 00:41:00,
2013-07-22 20:44:00,71.4,56.3,29.66,SE,135,0.0,0.0,59,0.00,CLR,,0.00,WeatherDisplay:10.37,2013-07-23 00:44:00,
2013-07-22 20:45:00,71.2,56.6,29.66,SE,135,0.0,0.0,60,0.00,CLR,,0.00,WeatherDisplay:10.37,2013-07-23 00:45:00,
2013-07-22 20:46:00,71.2,56.6,29.66,SE,135,0.0,0.0,60,0.00,CLR,,0.00,WeatherDisplay:10.37,2013-07-23 00:46:00,
2013-07-22 20:49:00,71.1,56.9,29.66,SE,135,0.0,0.0,61,0.00,CLR,,0.00,WeatherDisplay:10.37,2013-07-23 00:49:00,
2013-07-22 20:50:00,71.1,57.4,29.63,SE,135,0.0,0.0,62,0.00,CLR,,0.00,WeatherDisplay:10.37,2013-07-23 00:50:00,
2013-07-22 20:51:00,71.1,57.4,29.63,SE,135,0.0,0.0,62,0.00,CLR,,0.00,WeatherDisplay:10.37,2013-07-23 00:51:00,
2013-07-22 20:54:00,70.9,57.2,29.63,SE,135,0.0,0.0,62,0.00,CLR,,0.00,WeatherDisplay:10.37,2013-07-23 00:54:00,
2013-07-22 20:55:00,70.9,57.7,29.63,SE,135,0.0,0.0,63,0.00,CLR,,0.00,WeatherDisplay:10.37,2013-07-23 00:55:00,
2013-07-22 20:56:00,70.9,57.7,29.63,SE,135,0.0,0.0,63,0.00,CLR,,0.00,WeatherDisplay:10.37,2013-07-23 00:56:00,
2013-07-22 20:59:00,70.7,57.5,29.63,SE,135,0.0,0.0,63,0.00,CLR,,0.00,WeatherDisplay:10.37,2013-07-23 00:59:00,
2013-07-22 21:01:00,70.7,57.5,29.63,SE,135,0.0,0.0,63,0.00,CLR,,0.00,WeatherDisplay:10.37,2013-07-23 01:01:00,
2013-07-22 21:04:00,70.5,57.8,29.63,SE,135,0.0,0.0,64,0.00,CLR,,0.00,WeatherDisplay:10.37,2013-07-23 01:04:00,
2013-07-22 21:06:00,70.5,57.8,29.63,SE,135,0.0,0.0,64,0.00,CLR,,0.00,WeatherDisplay:10.37,2013-07-23 01:06:00,
2013-07-22 21:07:00,70.5,57.8,29.63,SE,135,0.0,0.0,64,0.00,CLR,,0.00,WeatherDisplay:10.37,2013-07-23 01:07:00,
2013-07-22 21:09:00,70.3,58.0,29.63,SE,135,0.0,0.0,65,0.00,CLR,,0.00,WeatherDisplay:10.37,2013-07-23 01:09:00,
2013-07-22 21:10:00,70.3,58.0,29.63,SE,135,0.0,0.0,65,0.00,CLR,,0.00,WeatherDisplay:10.37,2013-07-23 01:10:00,
2013-07-22 21:11:00,70.3,58.0,29.63,SE,135,0.0,0.0,65,0.00,CLR,,0.00,WeatherDisplay:10.37,2013-07-23 01:11:00,
2013-07-22 21:12:00,70.3,58.0,29.63,SE,135,0.0,0.0,65,0.00,CLR,,0.00,WeatherDisplay:10.37,2013-07-23 01:12:00,
2013-07-22 21:15:00,70.3,58.4,29.63,SE,135,0.0,0.0,66,0.00,CLR,,0.00,WeatherDisplay:10.37,2013-07-23 01:15:00,
2013-07-22 21:16:00,70.3,58.4,29.63,SE,135,0.0,0.0,66,0.00,CLR,,0.00,WeatherDisplay:10.37,2013-07-23 01:16:00,
2013-07-22 21:17:00,70.3,58.4,29.63,SE,135,0.0,0.0,66,0.00,CLR,,0.00,WeatherDisplay:10.37,2013-07-23 01:17:00,
2013-07-22 21:20:00,70.3,58.9,29.63,SE,135,0.0,0.0,67,0.00,CLR,,0.00,WeatherDisplay:10.37,2013-07-23 01:20:00,
2013-07-22 21:21:00,70.3,58.9,29.63,SE,135,0.0,0.0,67,0.00,CLR,,0.00,WeatherDisplay:10.37,2013-07-23 01:21:00,
2013-07-22 21:22:00,70.3,58.9,29.63,SE,135,0.0,0.0,67,0.00,CLR,,0.00,WeatherDisplay:10.37,2013-07-23 01:22:00,
2013-07-22 21:25:00,70.3,58.9,29.63,SE,135,0.0,0.0,67,0.00,CLR,,0.00,WeatherDisplay:10.37,2013-07-23 01:25:00,
2013-07-22 21:26:00,70.3,58.4,29.63,SE,135,0.0,0.0,66,0.00,CLR,,0.00,WeatherDisplay:10.37,2013-07-23 01:26:00,
2013-07-22 21:27:00,70.3,58.9,29.63,SE,135,0.0,0.0,67,0.00,CLR,,0.00,WeatherDisplay:10.37,2013-07-23 01:27:00,
2013-07-22 21:30:00,70.3,58.9,29.63,SE,135,0.0,0.0,67,0.00,CLR,,0.00,WeatherDisplay:10.37,2013-07-23 01:30:00,
2013-07-22 21:31:00,70.3,58.9,29.63,SE,135,0.0,0.0,67,0.00,CLR,,0.00,WeatherDisplay:10.37,2013-07-23 01:31:00,
2013-07-22 21:33:00,70.3,58.9,29.63,SE,135,0.0,0.0,67,0.00,CLR,,0.00,WeatherDisplay:10.37,2013-07-23 01:33:00,
2013-07-22 21:35:00,70.3,58.9,29.63,SE,135,0.0,0.0,67,0.00,CLR,,0.00,WeatherDisplay:10.37,2013-07-23 01:35:00,
2013-07-22 21:36:00,70.2,58.7,29.63,SE,135,0.0,0.0,67,0.00,CLR,,0.00,WeatherDisplay:10.37,2013-07-23 01:36:00,
2013-07-22 21:38:00,70.2,58.7,29.63,SE,135,0.0,0.0,67,0.00,CLR,,0.00,WeatherDisplay:10.37,2013-07-23 01:38:00,
2013-07-22 21:40:00,70.2,58.7,29.63,SE,135,0.0,0.0,67,0.00,CLR,,0.00,WeatherDisplay:10.37,2013-07-23 01:40:00,
2013-07-22 21:42:00,70.2,58.7,29.63,SE,135,0.0,0.0,67,0.00,CLR,,0.00,WeatherDisplay:10.37,2013-07-23 01:42:00,
2013-07-22 21:43:00,70.2,59.1,29.63,SE,135,0.0,0.0,68,0.00,CLR,,0.00,WeatherDisplay:10.37,2013-07-23 01:43:00,
2013-07-22 21:45:00,70.2,58.7,29.63,SE,135,0.0,0.0,67,0.00,CLR,,0.00,WeatherDisplay:10.37,2013-07-23 01:45:00,
2013-07-22 21:47:00,70.2,59.1,29.63,SE,135,0.0,0.0,68,0.00,CLR,,0.00,WeatherDisplay:10.37,2013-07-23 01:47:00,
2013-07-22 21:48:00,70.2,59.1,29.63,SE,135,0.0,0.0,68,0.00,CLR,,0.00,WeatherDisplay:10.37,2013-07-23 01:48:00,
2013-07-22 21:50:00,70.2,59.1,29.63,SE,135,0.0,0.0,68,0.00,CLR,,0.00,WeatherDisplay:10.37,2013-07-23 01:50:00,
2013-07-22 21:51:00,70.2,59.1,29.63,SE,135,0.0,0.0,68,0.00,CLR,,0.00,WeatherDisplay:10.37,2013-07-23 01:51:00,
2013-07-22 21:52:00,70.2,59.1,29.63,SE,135,0.0,0.0,68,0.00,CLR,,0.00,WeatherDisplay:10.37,2013-07-23 01:52:00,
2013-07-22 21:53:00,70.2,59.1,29.63,SE,135,0.0,0.0,68,0.00,CLR,,0.00,WeatherDisplay:10.37,2013-07-23 01:53:00,
2013-07-22 21:55:00,70.2,59.1,29.63,SE,135,0.0,0.0,68,0.00,CLR,,0.00,WeatherDisplay:10.37,2013-07-23 01:55:00,
2013-07-22 21:56:00,70.3,59.3,29.63,SE,135,0.0,0.0,68,0.00,CLR,,0.00,WeatherDisplay:10.37,2013-07-23 01:56:00,
2013-07-22 21:57:00,70.2,59.1,29.63,SE,135,0.0,0.0,68,0.00,CLR,,0.00,WeatherDisplay:10.37,2013-07-23 01:57:00,
2013-07-22 21:58:00,70.3,59.3,29.63,SE,135,0.0,0.0,68,0.00,CLR,,0.00,WeatherDisplay:10.37,2013-07-23 01:58:00,
2013-07-22 21:59:00,70.3,59.3,29.63,SE,135,0.0,0.0,68,0.00,CLR,,0.00,WeatherDisplay:10.37,2013-07-23 01:59:00,
2013-07-22 22:00:00,70.3,59.3,29.63,SE,135,0.0,0.0,68,0.00,CLR,,0.00,WeatherDisplay:10.37,2013-07-23 02:00:00,
2013-07-22 22:01:00,70.3,59.3,29.63,SE,135,0.0,0.0,68,0.00,CLR,,0.00,WeatherDisplay:10.37,2013-07-23 02:01:00,
2013-07-22 22:02:00,70.3,59.3,29.63,SE,135,0.0,0.0,68,0.00,CLR,,0.00,WeatherDisplay:10.37,2013-07-23 02:02:00,
2013-07-22 22:04:00,70.3,59.7,29.63,SE,135,0.0,0.0,69,0.00,CLR,,0.00,WeatherDisplay:10.37,2013-07-23 02:04:00,
2013-07-22 22:05:00,70.3,59.3,29.63,SE,135,0.0,0.0,68,0.00,CLR,,0.00,WeatherDisplay:10.37,2013-07-23 02:05:00,
2013-07-22 22:06:00,70.3,59.3,29.63,SE,135,0.0,0.0,68,0.00,CLR,,0.00,WeatherDisplay:10.37,2013-07-23 02:06:00,
2013-07-22 22:07:00,70.5,59.4,29.63,SE,135,0.0,0.0,68,0.00,CLR,,0.00,WeatherDisplay:10.37,2013-07-23 02:07:00,
2013-07-22 22:09:00,70.3,59.3,29.63,SE,135,0.0,0.0,68,0.00,CLR,,0.00,WeatherDisplay:10.37,2013-07-23 02:09:00,
2013-07-22 22:11:00,70.5,59.4,29.63,SE,135,0.0,0.0,68,0.00,CLR,,0.00,WeatherDisplay:10.37,2013-07-23 02:11:00,
2013-07-22 22:13:00,70.5,59.4,29.63,SE,135,0.0,0.0,68,0.00,CLR,,0.00,WeatherDisplay:10.37,2013-07-23 02:13:00,
2013-07-22 22:14:00,70.5,59.4,29.63,SE,135,0.0,0.0,68,0.00,CLR,,0.00,WeatherDisplay:10.37,2013-07-23 02:14:00,
2013-07-22 22:16:00,70.5,59.4,29.63,SE,135,0.0,0.0,68,0.00,CLR,,0.00,WeatherDisplay:10.37,2013-07-23 02:16:00,
2013-07-22 22:18:00,70.5,59.4,29.63,SE,135,0.0,0.0,68,0.00,CLR,,0.00,WeatherDisplay:10.37,2013-07-23 02:18:00,
2013-07-22 22:19:00,70.5,59.4,29.63,SE,135,0.0,0.0,68,0.00,CLR,,0.00,WeatherDisplay:10.37,2013-07-23 02:19:00,
2013-07-22 22:21:00,70.5,59.4,29.63,SE,135,0.0,0.0,68,0.00,CLR,,0.00,WeatherDisplay:10.37,2013-07-23 02:21:00,
2013-07-22 22:23:00,70.5,59.4,29.63,SE,135,0.0,0.0,68,0.00,CLR,,0.00,WeatherDisplay:10.37,2013-07-23 02:23:00,
2013-07-22 22:24:00,70.5,59.4,29.63,SE,135,0.0,0.0,68,0.00,CLR,,0.00,WeatherDisplay:10.37,2013-07-23 02:24:00,
2013-07-22 22:26:00,70.5,59.4,29.63,SE,135,0.0,0.0,68,0.00,CLR,,0.00,WeatherDisplay:10.37,2013-07-23 02:26:00,
2013-07-22 22:27:00,70.5,59.9,29.63,SE,135,0.0,0.0,69,0.00,CLR,,0.00,WeatherDisplay:10.37,2013-07-23 02:27:00,
2013-07-22 22:28:00,70.5,59.9,29.63,SE,135,0.0,0.0,69,0.00,CLR,,0.00,WeatherDisplay:10.37,2013-07-23 02:28:00,
2013-07-22 22:29:00,70.3,59.7,29.63,SE,135,0.0,0.0,69,0.00,CLR,,0.00,WeatherDisplay:10.37,2013-07-23 02:29:00,
2013-07-22 22:30:00,70.3,59.7,29.63,SE,135,0.0,0.0,69,0.00,CLR,,0.00,WeatherDisplay:10.37,2013-07-23 02:30:00,
2013-07-22 22:31:00,70.3,59.7,29.63,SE,135,0.0,0.0,69,0.00,CLR,,0.00,WeatherDisplay:10.37,2013-07-23 02:31:00,
2013-07-22 22:32:00,70.3,59.7,29.63,SE,135,0.0,0.0,69,0.00,CLR,,0.00,WeatherDisplay:10.37,2013-07-23 02:32:00,
2013-07-22 22:33:00,70.3,60.1,29.63,SE,135,0.0,0.0,70,0.00,CLR,,0.00,WeatherDisplay:10.37,2013-07-23 02:33:00,
2013-07-22 22:34:00,70.3,60.1,29.63,SE,135,0.0,0.0,70,0.00,CLR,,0.00,WeatherDisplay:10.37,2013-07-23 02:34:00,
2013-07-22 22:35:00,70.3,60.1,29.60,SE,135,0.0,0.0,70,0.00,CLR,,0.00,WeatherDisplay:10.37,2013-07-23 02:35:00,
2013-07-22 22:37:00,70.2,59.9,29.60,SE,135,0.0,0.0,70,0.00,CLR,,0.00,WeatherDisplay:10.37,2013-07-23 02:37:00,
2013-07-22 22:39:00,70.2,60.3,29.60,SE,135,0.0,0.0,71,0.00,CLR,,0.00,WeatherDisplay:10.37,2013-07-23 02:39:00,
2013-07-22 22:40:00,70.2,60.3,29.60,SE,135,0.0,0.0,71,0.00,CLR,,0.00,WeatherDisplay:10.37,2013-07-23 02:40:00,
2013-07-22 22:42:00,70.2,60.3,29.60,SE,135,0.0,0.0,71,0.00,CLR,,0.00,WeatherDisplay:10.37,2013-07-23 02:42:00,
2013-07-22 22:44:00,70.0,60.1,29.60,SE,135,0.0,0.0,71,0.00,CLR,,0.00,WeatherDisplay:10.37,2013-07-23 02:44:00,
2013-07-22 22:45:00,70.2,60.3,29.60,SE,135,0.0,0.0,71,0.00,CLR,,0.00,WeatherDisplay:10.37,2013-07-23 02:45:00,
2013-07-22 22:46:00,70.0,60.5,29.60,SE,135,0.0,0.0,72,0.00,CLR,,0.00,WeatherDisplay:10.37,2013-07-23 02:46:00,
2013-07-22 22:47:00,70.0,60.5,29.60,SE,135,0.0,0.0,72,0.00,CLR,,0.00,WeatherDisplay:10.37,2013-07-23 02:47:00,
2013-07-22 22:49:00,70.0,60.9,29.60,SE,135,0.0,0.0,73,0.00,CLR,,0.00,WeatherDisplay:10.37,2013-07-23 02:49:00,
2013-07-22 22:50:00,70.0,60.9,29.57,SE,135,0.0,0.0,73,0.00,CLR,,0.00,WeatherDisplay:10.37,2013-07-23 02:50:00,
2013-07-22 22:51:00,70.0,60.9,29.57,SE,135,0.0,0.0,73,0.00,CLR,,0.00,WeatherDisplay:10.37,2013-07-23 02:51:00,
2013-07-22 22:52:00,70.0,60.9,29.57,SE,135,0.0,0.0,73,0.00,CLR,,0.00,WeatherDisplay:10.37,2013-07-23 02:52:00,
2013-07-22 22:54:00,70.0,60.5,29.57,SE,135,0.0,0.0,72,0.00,CLR,,0.00,WeatherDisplay:10.37,2013-07-23 02:54:00,
2013-07-22 22:56:00,70.0,60.9,29.57,SE,135,0.0,0.0,73,0.00,CLR,,0.00,WeatherDisplay:10.37,2013-07-23 02:56:00,
2013-07-22 22:57:00,70.0,60.9,29.57,SE,135,0.0,0.0,73,0.00,CLR,,0.00,WeatherDisplay:10.37,2013-07-23 02:57:00,
2013-07-22 22:59:00,69.8,60.8,29.57,SE,135,0.0,0.0,73,0.00,CLR,,0.00,WeatherDisplay:10.37,2013-07-23 02:59:00,
2013-07-22 23:01:00,70.0,60.9,29.57,SE,135,0.0,0.0,73,0.00,CLR,,0.00,WeatherDisplay:10.37,2013-07-23 03:01:00,
2013-07-22 23:02:00,70.0,60.9,29.57,SE,135,0.0,0.0,73,0.00,CLR,,0.00,WeatherDisplay:10.37,2013-07-23 03:02:00,
2013-07-22 23:04:00,70.0,61.3,29.57,SSE,158,0.0,0.0,74,0.00,CLR,,0.00,WeatherDisplay:10.37,2013-07-23 03:04:00,
2013-07-22 23:07:00,70.0,61.7,29.57,SSE,158,0.0,0.0,75,0.00,CLR,,0.00,WeatherDisplay:10.37,2013-07-23 03:07:00,
2013-07-22 23:09:00,70.0,61.3,29.57,SSE,158,0.0,0.0,74,0.00,CLR,,0.00,WeatherDisplay:10.37,2013-07-23 03:09:00,
2013-07-22 23:10:00,70.0,61.3,29.57,SSE,158,0.0,0.0,74,0.00,CLR,,0.00,WeatherDisplay:10.37,2013-07-23 03:10:00,
2013-07-22 23:12:00,70.0,61.3,29.57,SSE,158,0.0,0.0,74,0.00,CLR,,0.00,WeatherDisplay:10.37,2013-07-23 03:12:00,
2013-07-22 23:13:00,70.0,61.7,29.57,SSE,158,0.0,0.0,75,0.00,CLR,,0.00,WeatherDisplay:10.37,2013-07-23 03:13:00,
2013-07-22 23:14:00,69.8,61.1,29.57,SSE,158,0.0,0.0,74,0.00,CLR,,0.00,WeatherDisplay:10.37,2013-07-23 03:14:00,
2013-07-22 23:15:00,69.8,61.5,29.57,SSE,158,0.0,0.0,75,0.00,CLR,,0.00,WeatherDisplay:10.37,2013-07-23 03:15:00,
2013-07-22 23:17:00,69.8,61.5,29.57,SE,135,0.0,0.0,75,0.00,CLR,,0.00,WeatherDisplay:10.37,2013-07-23 03:17:00,
2013-07-22 23:18:00,69.8,61.1,29.57,SE,135,0.0,0.0,74,0.00,CLR,,0.00,WeatherDisplay:10.37,2013-07-23 03:18:00,
2013-07-22 23:19:00,69.8,61.1,29.57,SE,135,0.0,0.0,74,0.00,CLR,,0.00,WeatherDisplay:10.37,2013-07-23 03:19:00,
2013-07-22 23:20:00,69.8,61.1,29.57,SE,135,0.0,0.0,74,0.00,CLR,,0.00,WeatherDisplay:10.37,2013-07-23 03:20:00,
2013-07-22 23:22:00,69.8,61.1,29.57,SE,135,0.0,0.0,74,0.00,CLR,,0.00,WeatherDisplay:10.37,2013-07-23 03:22:00,
2013-07-22 23:23:00,69.8,61.5,29.57,SE,135,0.0,0.0,75,0.00,CLR,,0.00,WeatherDisplay:10.37,2013-07-23 03:23:00,
2013-07-22 23:24:00,69.8,61.5,29.57,SE,135,0.0,0.0,75,0.00,CLR,,0.00,WeatherDisplay:10.37,2013-07-23 03:24:00,
2013-07-22 23:25:00,69.8,61.5,29.57,SE,135,0.0,0.0,75,0.00,CLR,,0.00,WeatherDisplay:10.37,2013-07-23 03:25:00,
2013-07-22 23:27:00,69.8,61.5,29.57,SSE,158,1.2,0.0,75,0.00,CLR,,0.00,WeatherDisplay:10.37,2013-07-23 03:27:00,
2013-07-22 23:28:00,69.6,61.7,29.57,SSE,158,1.2,0.0,76,0.00,CLR,,0.00,WeatherDisplay:10.37,2013-07-23 03:28:00,
2013-07-22 23:30:00,69.8,61.9,29.57,NNW,338,2.0,0.0,76,0.00,CLR,,0.00,WeatherDisplay:10.37,2013-07-23 03:30:00,
2013-07-22 23:32:00,69.6,62.8,29.57,SSE,158,1.2,0.0,79,0.00,CLR,,0.00,WeatherDisplay:10.37,2013-07-23 03:32:00,
2013-07-22 23:33:00,69.6,62.8,29.57,SSE,158,1.2,0.0,79,0.00,CLR,,0.00,WeatherDisplay:10.37,2013-07-23 03:33:00,
2013-07-22 23:35:00,69.4,62.6,29.57,SE,135,1.2,0.0,79,0.00,CLR,,0.00,WeatherDisplay:10.37,2013-07-23 03:35:00,
2013-07-22 23:37:00,69.4,63.0,29.57,SSE,158,1.2,0.0,80,0.00,CLR,,0.00,WeatherDisplay:10.37,2013-07-23 03:37:00,
2013-07-22 23:38:00,69.4,63.0,29.57,SSE,158,0.0,0.0,80,0.00,CLR,,0.00,WeatherDisplay:10.37,2013-07-23 03:38:00,
2013-07-22 23:40:00,69.3,63.2,29.57,SE,135,0.0,0.0,81,0.00,CLR,,0.00,WeatherDisplay:10.37,2013-07-23 03:40:00,
2013-07-22 23:42:00,69.1,63.0,29.57,SE,135,0.0,0.0,81,0.00,CLR,,0.00,WeatherDisplay:10.37,2013-07-23 03:42:00,
2013-07-22 23:43:00,69.1,63.0,29.57,SE,135,0.0,0.0,81,0.00,CLR,,0.00,WeatherDisplay:10.37,2013-07-23 03:43:00,
2013-07-22 23:44:00,69.1,63.0,29.57,SSE,158,0.0,0.0,81,0.00,CLR,,0.00,WeatherDisplay:10.37,2013-07-23 03:44:00,
2013-07-22 23:45:00,69.1,63.0,29.57,SSE,158,0.0,0.0,81,0.00,CLR,,0.00,WeatherDisplay:10.37,2013-07-23 03:45:00,
2013-07-22 23:46:00,68.9,62.8,29.57,SSE,158,0.0,0.0,81,0.00,CLR,,0.00,WeatherDisplay:10.37,2013-07-23 03:46:00,
2013-07-22 23:48:00,68.9,63.2,29.57,SSE,158,0.0,0.0,82,0.00,CLR,,0.00,WeatherDisplay:10.37,2013-07-23 03:48:00,
2013-07-22 23:49:00,68.9,63.2,29.57,SSE,158,0.0,0.0,82,0.00,CLR,,0.00,WeatherDisplay:10.37,2013-07-23 03:49:00,
2013-07-22 23:50:00,68.9,63.2,29.57,ESE,112,0.0,0.0,82,0.00,CLR,,0.00,WeatherDisplay:10.37,2013-07-23 03:50:00,
2013-07-22 23:51:00,68.9,63.2,29.57,ESE,112,0.0,0.0,82,0.00,CLR,,0.00,WeatherDisplay:10.37,2013-07-23 03:51:00,
2013-07-22 23:53:00,68.9,63.2,29.57,ESE,112,0.0,0.0,82,0.00,CLR,,0.00,WeatherDisplay:10.37,2013-07-23 03:53:00,
2013-07-22 23:54:00,68.9,63.5,29.57,NNW,338,0.0,0.0,83,0.00,CLR,,0.00,WeatherDisplay:10.37,2013-07-23 03:54:00,
2013-07-22 23:55:00,68.9,63.5,29.57,SSE,158,0.0,0.0,83,0.00,CLR,,0.00,WeatherDisplay:10.37,2013-07-23 03:55:00,
2013-07-22 23:57:00,68.9,63.9,29.57,SSE,158,0.0,0.0,84,0.00,CLR,,0.00,WeatherDisplay:10.37,2013-07-23 03:57:00,
2013-07-22 23:58:00,68.9,63.9,29.57,NNW,338,0.0,0.0,84,0.00,CLR,,0.00,WeatherDisplay:10.37,2013-07-23 03:58:00,
2013-07-22 23:59:00,68.9,63.5,29.57,SSW,202,0.0,0.0,83,0.00,CLR,,0.00,WeatherDisplay:10.37,2013-07-23 03:59:00,